GFSMA_prec_cthk_000.txt.gz
RH
47 45 46 46 47 48 46 45 43 43 41 38 33 31 31 32 34 34 34 37 39 39 37 37 36 33 31 28 27 30 36 41 51 61 70 82 86 87 84 82 79 70 71
48 49 49 49 49 51 51 47 45 44 42 41 39 35 32 30 30 30 33 35 35 36 36 36 37 38 38 37 33 31 31 35 45 55 62 75 78 88 90 83 84 74 63
54 55 54 55 56 55 52 49 48 47 45 44 43 42 39 36 32 31 30 31 30 30 32 32 33 34 37 39 40 38 36 36 40 48 58 62 71 78 83 86 87 84 73
61 59 59 59 58 56 53 50 46 44 45 45 44 43 41 41 38 35 34 32 32 30 30 30 29 30 33 35 38 40 41 41 40 42 47 59 64 69 77 85 92 90 83
65 65 64 61 58 58 56 53 51 49 52 50 44 40 41 44 44 40 37 36 35 37 35 31 31 31 30 32 34 37 39 41 43 42 41 46 60 65 72 93 86 92 92
69 67 66 63 66 64 59 54 54 52 42 39 38 38 36 32 33 37 45 44 44 42 41 40 35 33 32 32 32 34 35 38 41 43 45 43 45 53 66 73 88 88 88
69 72 70 69 65 63 60 56 50 45 43 41 40 39 37 38 45 47 55 60 62 48 47 43 36 38 36 33 33 33 35 36 37 40 45 48 46 44 51 64 76 83 99
81 86 83 73 68 66 62 56 55 49 43 39 39 36 37 35 37 36 39 47 64 71 57 62 63 59 48 42 39 36 35 36 37 38 40 44 48 49 49 47 58 71 88
78 74 72 67 60 54 52 47 44 43 42 40 42 46 45 45 41 37 35 35 43 63 80 89 86 71 65 54 49 40 40 38 38 39 38 40 44 49 52 52 48 46 59
59 60 59 57 54 50 47 45 45 46 44 41 40 42 43 46 48 41 34 33 37 48 68 84 86 90 85 74 58 51 47 45 48 43 43 42 40 42 47 52 53 52 48
58 57 53 53 52 49 48 48 49 47 47 52 50 47 46 49 55 60 48 42 39 43 42 74 89 82 94 83 76 70 60 57 54 51 45 47 48 44 41 44 51 53 54
58 57 57 55 53 53 54 56 57 59 56 54 52 56 54 51 46 52 53 42 41 34 45 45 69 88 92 95 91 84 72 64 61 58 52 49 49 50 45 42 42 48 52
63 61 61 60 58 57 59 58 56 56 53 48 51 58 61 61 58 59 63 58 50 44 41 45 48 71 98 98 96 97 89 79 61 66 62 58 51 49 49 46 44 46 44
64 64 57 51 52 49 50 47 45 49 51 54 61 66 62 61 67 66 69 77 72 65 59 60 61 61 80 97 99 98 98 94 83 67 67 56 55 51 52 52 47 43 42
69 61 54 49 49 40 41 44 50 56 57 61 68 70 69 71 70 74 77 83 93 87 81 83 80 81 70 89 95 96 97 91 76 72 62 57 58 54 54 56 54 48 45
48 41 42 38 38 42 47 53 56 63 69 75 84 90 93 91 89 90 90 88 84 81 71 79 83 79 92 94 98 97 96 94 83 81 74 67 66 63 63 58 58 58 51
29 28 33 36 41 49 52 60 71 76 79 83 89 95 96 98 98 98 98 93 86 84 77 70 75 83 86 90 91 93 94 95 87 78 73 66 63 65 66 66 62 58 58
32 38 44 45 47 52 55 59 61 63 66 74 83 84 84 88 91 94 96 96 93 89 86 79 73 71 77 84 87 90 91 91 90 82 77 75 68 63 60 58 57 61 57
44 46 45 46 46 46 45 46 45 46 45 43 39 37 40 53 56 63 64 76 84 88 88 86 84 80 74 74 79 85 89 89 88 87 77 71 66 63 63 56 50 48 54
45 44 49 52 51 52 51 48 45 42 39 37 32 29 33 41 53 62 62 59 58 68 75 74 72 71 71 69 68 67 71 74 75 77 73 70 66 63 61 59 52 46 40
47 52 53 50 52 52 50 47 43 44 48 47 43 41 39 41 46 52 54 59 54 45 48 58 63 66 64 65 71 79 81 79 76 76 75 66 66 66 62 56 52 49 42
56 60 54 53 52 52 52 53 51 59 64 66 64 59 55 53 54 63 63 56 53 48 42 44 46 52 58 61 64 67 70 71 70 68 64 59 62 57 57 64 64 63 52
65 63 55 55 56 57 59 55 58 68 74 74 71 71 72 75 77 78 70 62 57 51 50 50 54 50 48 46 50 52 53 57 60 62 58 57 59 58 62 64 67 62 56
78 54 54 59 60 61 62 66 66 77 82 82 80 80 78 75 78 80 71 61 56 55 52 51 51 44 49 46 47 45 45 44 44 47 57 63 62 61 62 61 60 60 60
54 55 57 60 59 57 54 67 85 89 92 90 93 95 95 86 80 81 72 63 55 50 50 50 52 52 52 52 51 53 54 62 64 68 73 73 72 68 65 60 57 55 54
53 57 55 53 54 52 68 89 95 96 94 93 97 97 94 94 94 91 81 73 65 61 58 54 56 57 60 64 70 77 83 83 82 82 86 88 84 83 75 68 64 62 59

GFSMA_prec_cthk_003.txt.gz
RH
47 46 46 48 48 50 50 49 46 43 39 37 35 34 33 32 30 29 28 26 28 30 32 32 32 34 37 37 36 34 34 34 38 40 57 57 58 78 82 79 80 73 78
51 52 54 54 53 55 55 52 49 44 42 40 37 36 33 33 32 32 32 29 27 26 27 29 31 31 32 34 37 39 39 38 37 40 48 61 58 67 76 77 75 79 79
62 60 61 58 56 55 55 54 51 49 45 42 44 42 40 35 33 35 39 36 30 28 28 27 26 28 29 29 31 34 39 42 42 41 46 55 63 61 64 78 79 80 80
64 62 61 60 58 59 60 58 52 49 45 48 51 59 50 40 37 32 30 32 34 34 33 32 32 30 26 26 28 29 32 36 41 44 44 49 58 65 66 66 82 85 73
67 67 65 62 63 64 64 62 58 56 54 52 51 46 41 41 38 37 38 43 40 39 39 38 38 35 33 31 26 27 29 31 35 39 43 47 51 59 66 69 73 81 85
62 65 68 67 62 61 64 60 58 53 51 52 48 46 42 36 38 34 31 40 51 55 58 49 48 41 41 41 37 32 28 29 32 34 39 45 47 50 62 70 74 76 81
63 64 58 56 53 49 53 53 53 51 47 47 43 38 33 31 30 27 29 34 38 42 56 60 63 64 58 47 48 43 39 31 29 31 34 38 45 49 47 58 70 73 76
64 56 56 54 50 49 50 48 47 44 41 42 43 42 39 35 34 34 35 39 42 38 42 42 48 59 66 76 65 60 53 44 36 33 33 36 37 42 49 50 51 62 75
56 57 56 54 54 53 51 49 50 50 46 45 48 48 46 43 43 39 37 37 37 37 39 39 49 58 70 75 76 70 65 58 51 40 34 34 36 38 42 48 52 51 58
57 57 57 57 56 54 54 56 52 50 49 48 48 54 60 61 57 49 43 42 42 45 46 48 51 57 64 75 82 78 75 76 67 55 43 36 38 39 41 42 47 52 52
57 57 59 60 60 60 55 53 49 48 46 47 49 56 56 60 59 61 53 41 39 37 40 44 47 56 73 84 82 94 91 83 74 70 61 50 45 44 43 44 46 47 53
56 59 62 64 64 60 57 53 48 47 50 52 51 61 52 56 52 61 62 45 38 26 26 31 39 48 54 69 78 78 98 87 85 84 74 66 57 52 48 51 49 50 47
63 64 58 56 53 51 45 43 43 40 41 44 44 44 48 51 62 63 65 61 55 40 33 34 38 44 52 60 67 83 98 98 97 95 91 75 76 64 55 52 52 52 54
64 59 50 46 42 38 39 39 39 41 47 50 55 56 61 60 74 75 75 74 63 62 52 51 52 58 64 59 61 66 89 97 98 97 93 90 89 84 66 60 57 57 59
60 51 51 39 36 39 39 39 41 43 48 52 56 65 69 75 84 89 93 98 98 80 68 70 63 65 76 76 72 65 72 87 96 98 96 92 88 79 73 72 59 53 57
54 53 38 32 32 34 39 44 46 44 46 53 61 68 77 87 91 98 99 99 99 97 78 78 73 70 74 88 92 89 78 83 96 93 95 90 79 74 74 68 58 52 52
45 36 34 32 34 38 38 37 38 37 34 35 39 49 54 63 70 79 91 94 96 97 91 75 77 72 70 77 82 92 96 90 88 96 90 88 80 70 68 69 65 62 59
41 40 33 37 36 40 42 40 40 44 42 43 43 40 38 33 30 40 54 71 86 85 85 82 78 75 73 76 80 85 92 96 95 97 94 85 75 70 70 66 66 63 64
70 62 46 40 41 43 44 44 47 47 46 48 48 49 47 41 33 32 41 49 56 61 66 73 78 80 78 79 80 82 88 92 96 91 93 87 76 72 72 68 65 62 59
82 53 49 40 47 43 46 44 45 46 51 56 56 56 58 58 54 48 46 47 53 62 55 51 49 58 71 79 84 81 73 85 87 90 87 81 75 71 67 68 64 59 60
68 63 56 51 49 42 45 49 55 55 57 57 59 63 65 66 70 70 67 63 57 54 46 44 48 42 42 57 71 73 70 72 83 87 84 79 71 71 68 65 62 62 58
70 73 58 49 39 46 52 60 60 60 65 71 75 76 77 80 84 85 82 80 79 69 62 54 47 40 37 41 49 59 63 70 70 78 81 79 76 74 71 72 69 67 59
76 74 52 39 46 55 60 60 60 65 78 87 88 86 86 90 89 86 86 85 83 81 73 62 57 48 43 44 49 51 54 62 69 70 73 71 70 67 67 65 67 65 60
76 57 41 45 54 60 59 53 58 80 91 94 93 89 89 96 98 96 87 80 78 75 69 60 53 45 45 43 48 52 56 57 55 55 57 57 55 60 58 55 55 57 59
64 44 43 49 51 54 50 49 73 87 91 91 89 92 94 93 93 95 96 92 84 79 69 58 52 50 50 48 54 56 51 50 43 40 42 45 39 41 43 48 54 57 60
56 44 47 48 55 53 47 56 77 86 88 91 93 94 96 99 96 89 93 93 88 80 71 65 60 55 52 53 58 60 57 56 58 56 62 66 64 67 66 64 63 62 62

GFSMA_prec_cthk_006.txt.gz
RH
45 50 52 52 53 53 51 49 50 48 45 42 40 38 38 39 39 39 35 37 34 32 28 26 27 28 30 33 36 37 37 36 35 36 39 49 52 57 72 85 83 82 74
52 56 58 56 56 56 54 52 51 51 49 47 44 40 40 43 48 49 46 41 37 33 32 29 27 25 26 28 30 33 36 38 38 37 39 41 46 67 63 75 82 81 77
61 64 61 59 57 53 54 52 51 52 52 50 48 45 47 45 49 44 40 37 38 35 33 32 32 33 32 27 26 28 30 34 38 41 40 41 47 62 72 63 74 80 80
69 67 62 60 59 56 55 55 48 46 49 50 48 47 50 47 45 45 40 35 35 35 40 45 43 44 41 39 33 27 26 28 32 37 41 42 45 55 66 60 61 73 90
75 72 68 63 60 59 51 49 46 44 45 42 42 41 41 42 44 42 41 42 43 40 41 42 46 49 49 46 45 41 32 28 28 31 35 39 42 46 60 65 68 73 74
67 64 64 65 60 54 52 50 47 45 44 41 38 35 33 33 35 39 38 35 35 36 33 36 41 39 45 50 51 49 48 41 31 29 30 34 38 41 44 57 63 76 88
66 67 63 56 53 51 52 49 46 45 44 40 36 33 30 31 32 35 35 36 40 43 43 40 38 41 36 44 51 55 57 50 44 37 31 32 35 39 41 42 53 67 83
61 56 55 53 51 51 49 50 49 46 45 46 44 39 35 32 35 39 40 39 40 42 46 55 57 49 44 37 32 47 59 64 58 50 41 33 32 34 38 42 43 47 64
53 50 48 48 48 48 48 51 53 55 53 51 47 48 45 45 43 39 39 42 44 45 48 47 50 53 51 46 44 39 50 66 68 64 57 44 35 33 35 37 41 44 45
46 46 49 51 52 53 53 55 55 52 50 46 49 49 54 52 46 49 47 43 40 36 37 41 45 50 53 53 53 56 43 48 72 73 70 62 48 37 33 37 38 40 44
56 53 57 61 65 63 48 42 45 46 46 48 44 44 43 46 47 46 45 37 36 38 34 34 32 33 42 52 56 59 64 54 74 75 76 75 69 54 43 35 39 40 40
59 58 69 63 61 55 44 43 41 41 42 42 42 42 41 46 47 48 46 33 39 33 31 33 36 33 33 38 47 61 60 60 81 86 87 78 72 67 62 49 40 45 47
78 58 60 56 56 46 35 34 35 36 36 44 47 49 51 55 61 58 60 55 51 41 39 39 44 43 41 45 42 48 54 57 58 96 92 93 86 77 72 64 50 45 49
73 57 55 49 46 41 32 28 26 28 32 37 41 45 49 54 64 70 74 75 69 63 53 49 53 58 51 54 58 56 57 61 59 67 83 92 97 90 80 74 66 55 48
49 56 60 52 37 28 30 35 41 38 32 35 37 36 40 49 62 74 82 88 95 87 70 69 74 80 74 69 69 70 71 70 71 72 90 98 98 97 97 90 77 69 63
61 70 68 55 47 50 51 51 52 30 34 37 35 35 38 43 46 52 56 70 85 96 93 76 84 86 84 80 79 72 71 73 73 73 77 96 96 92 92 95 94 84 79
84 79 71 72 68 59 53 52 43 34 38 40 43 45 46 46 43 39 39 39 52 68 91 85 87 86 87 84 81 82 81 84 84 84 78 85 89 94 93 89 85 86 83
71 80 88 80 72 61 53 46 36 43 40 40 42 45 45 45 40 39 38 34 27 38 50 71 81 84 85 89 86 81 78 80 89 98 92 83 88 89 88 86 80 76 74
80 93 80 72 68 63 56 49 39 40 44 49 51 51 51 49 45 43 44 45 41 36 46 49 52 82 78 78 86 85 80 80 82 92 97 98 90 89 94 85 75 72 67
73 70 78 77 72 63 49 45 45 46 49 52 55 58 59 60 59 60 61 60 58 53 53 51 46 52 61 62 61 75 83 86 86 87 91 96 88 88 87 81 73 69 62
62 73 85 81 68 53 50 51 49 51 53 51 53 65 72 72 73 80 83 83 83 78 72 67 55 50 48 41 42 45 62 76 84 82 90 92 88 85 85 79 74 72 65
67 88 92 78 54 47 53 51 53 51 46 51 67 73 75 75 76 84 87 94 95 90 88 83 76 64 55 48 39 37 41 55 68 72 78 89 87 87 81 82 77 76 77
82 90 75 66 47 53 51 52 50 46 47 66 75 80 77 82 85 85 92 93 93 92 90 89 79 71 62 52 46 38 37 42 50 59 61 69 84 86 85 83 77 75 73
83 75 70 54 51 49 50 50 49 43 56 72 83 84 87 90 92 93 94 91 97 96 90 80 74 69 61 51 44 39 38 42 46 52 59 57 63 73 80 77 72 67 68
73 79 64 54 51 48 50 50 44 40 62 83 88 90 95 96 97 99 98 88 91 94 95 86 79 70 57 50 48 47 42 48 47 47 54 57 55 53 58 62 63 63 65
84 76 62 49 50 51 50 46 40 42 69 82 90 93 96 98 99 98 99 96 88 93 90 84 76 65 57 52 51 48 48 51 52 51 50 58 51 54 50 45 46 47 48

GFSMA_prec_cthk_009.txt.gz
RH
48 46 48 51 54 54 50 49 49 51 49 47 46 48 48 48 46 46 47 45 40 36 32 30 27 24 25 26 31 35 35 35 34 37 38 39 41 52 61 77 83 85 89
53 55 58 61 61 59 53 53 51 51 47 46 43 42 45 46 48 48 49 51 44 39 41 35 32 29 27 26 26 27 31 34 35 35 33 33 40 42 56 65 73 88 91
62 66 67 68 60 56 53 51 50 47 45 44 42 44 47 45 43 43 43 44 44 40 38 35 38 39 36 36 30 28 26 27 31 33 35 35 32 36 48 51 67 83 95
73 73 70 64 57 55 53 52 46 44 44 42 41 41 41 41 42 42 43 41 39 39 37 38 36 35 38 40 41 38 34 28 26 27 31 35 37 37 39 46 73 82 88
77 72 67 63 58 53 48 45 41 40 41 41 40 41 41 40 39 36 34 36 36 35 35 36 37 35 36 39 47 43 40 38 31 27 27 29 33 37 38 42 63 80 89
73 68 69 60 50 48 44 41 39 38 39 38 38 36 35 36 37 35 34 33 33 35 36 37 36 33 33 36 37 40 45 44 41 36 30 28 30 32 35 38 44 68 82
70 62 53 51 49 45 40 39 41 41 40 39 38 35 38 42 41 39 39 38 37 37 40 42 43 44 41 36 37 38 41 46 47 48 40 32 30 32 32 34 37 44 69
58 54 51 48 43 42 44 45 46 43 42 43 43 37 36 36 40 43 43 43 43 43 44 43 43 46 50 52 47 42 41 38 39 52 51 46 36 32 34 32 34 36 42
50 48 48 50 50 50 49 48 50 52 54 54 52 47 41 40 37 35 38 43 43 42 46 47 46 45 45 48 54 57 50 50 42 38 48 52 48 42 35 33 33 34 38
52 51 52 52 53 55 59 54 46 40 38 37 35 32 32 35 37 34 33 29 30 33 34 37 40 39 40 39 41 46 55 50 53 50 48 46 53 51 43 34 31 33 36
51 50 56 60 64 57 54 52 48 33 32 35 37 36 34 36 40 42 37 37 37 29 28 28 31 32 32 33 36 35 43 48 51 57 65 54 50 58 53 44 33 33 35
56 58 70 57 57 58 53 54 48 32 31 33 33 34 38 44 49 49 49 41 42 35 35 33 37 39 38 37 37 35 33 42 54 63 62 70 56 65 65 56 47 38 36
49 46 43 45 49 51 48 41 37 37 39 42 42 40 44 47 48 53 53 52 51 42 41 46 50 53 56 48 45 43 38 36 39 58 72 63 74 74 63 66 60 52 45
37 42 51 59 60 66 58 51 50 52 50 50 45 37 34 38 46 45 53 62 57 56 56 55 60 70 74 66 60 49 45 49 45 42 52 59 66 74 80 72 70 67 60
40 51 62 69 74 75 70 65 57 65 59 45 46 43 38 36 37 38 43 47 53 53 48 57 70 82 89 86 78 67 60 62 63 56 51 62 64 60 78 95 90 82 68
46 51 54 56 67 74 74 71 65 63 53 50 47 44 42 37 37 39 40 41 41 42 42 50 58 70 90 96 92 83 78 74 71 71 67 63 57 62 78 93 98 95 86
47 54 50 58 75 71 69 74 70 61 50 43 43 45 49 45 43 43 43 42 40 41 37 32 37 52 75 88 96 93 85 78 74 73 71 72 67 71 77 98 95 91 98
48 52 56 62 65 71 65 61 62 49 46 47 47 51 51 47 46 47 46 42 39 38 42 40 35 41 58 78 87 96 93 85 76 75 69 74 86 78 77 83 89 86 86
32 44 49 51 53 67 69 69 50 47 51 51 53 53 51 44 43 53 58 59 61 64 61 52 46 49 43 61 78 83 88 91 82 74 69 76 85 96 98 84 89 93 92
40 44 50 54 62 76 77 56 50 49 53 57 56 48 42 52 61 62 64 66 74 76 78 80 71 65 62 52 44 61 72 79 84 75 73 77 88 98 98 93 87 89 85
46 51 57 64 82 75 62 50 50 51 56 52 47 43 53 67 75 74 75 78 81 85 86 90 91 89 78 69 53 40 52 60 62 71 70 77 86 96 98 93 88 88 87
51 59 69 78 75 67 56 50 51 52 52 48 43 45 66 77 80 84 90 93 95 93 90 94 96 97 95 86 76 56 42 41 41 44 58 71 81 93 95 93 85 81 86
57 71 72 69 68 65 55 48 48 49 46 44 42 62 77 84 89 95 96 96 96 96 94 89 98 98 95 91 81 65 50 40 31 27 42 59 70 82 91 87 80 77 82
60 66 67 74 75 65 51 45 44 44 41 41 47 73 83 90 96 97 98 99 99 96 94 90 98 98 88 84 80 69 56 43 34 28 35 44 55 62 66 82 83 74 77
64 68 74 82 80 61 50 43 41 41 42 41 59 83 91 94 95 97 98 99 98 96 90 91 92 94 91 83 78 69 59 49 39 32 34 40 44 48 53 58 70 84 80
72 80 86 86 69 57 47 41 42 42 42 42 69 89 93 95 98 98 98 98 98 95 90 93 94 89 82 77 74 66 57 51 45 40 36 41 43 50 54 56 56 58 62

GFSMA_prec_cthk_015.txt.gz
RH
61 64 67 65 63 63 65 60 57 53 48 43 41 37 32 29 28 28 28 30 32 34 35 35 37 38 37 33 31 29 27 27 30 33 34 31 30 34 43 55 66 77 90
72 77 74 71 73 73 67 63 57 52 47 39 35 32 29 27 26 26 26 26 25 26 28 29 30 32 34 34 31 29 31 31 28 29 33 35 35 32 32 38 55 65 73
83 79 81 78 75 71 63 59 55 46 39 36 34 32 30 29 29 30 29 27 26 24 24 24 25 27 29 32 33 30 28 31 34 31 29 31 34 35 34 31 31 51 59
85 86 81 72 67 66 62 56 46 41 39 38 36 35 34 33 32 31 30 28 28 27 26 24 23 23 23 25 28 31 31 30 32 36 35 31 30 30 31 36 35 33 43
76 72 69 66 64 59 49 44 41 38 37 36 36 36 36 35 35 34 34 33 32 32 30 29 27 26 25 24 24 27 30 31 30 32 38 39 36 40 35 33 38 38 34
66 64 60 56 49 43 42 43 42 41 40 40 39 38 38 37 36 37 37 34 34 33 30 27 26 26 27 26 25 27 28 31 31 30 31 41 43 38 42 35 31 35 37
56 55 52 47 46 47 48 47 46 43 41 40 38 39 36 31 29 28 27 29 26 22 22 20 19 18 18 20 23 25 27 29 32 35 34 33 41 48 42 42 34 29 33
50 49 50 51 51 51 51 49 45 40 36 31 30 31 29 27 27 24 27 25 26 21 22 21 20 20 18 16 17 19 23 25 28 33 38 38 36 40 46 45 45 38 32
53 52 52 52 51 50 45 39 36 33 32 30 28 32 35 34 39 33 34 35 36 35 32 30 25 22 21 20 18 17 18 24 26 29 33 40 41 41 45 50 51 50 41
56 54 50 46 39 36 33 30 28 31 33 36 36 40 39 43 46 41 42 43 38 36 34 34 31 26 25 25 20 18 20 20 24 29 32 34 42 47 46 48 54 55 52
55 49 41 34 28 25 25 27 30 38 38 42 48 48 49 50 56 59 46 43 41 43 44 32 29 31 30 28 27 28 24 25 22 26 34 36 36 44 52 50 58 52 51
39 30 27 26 25 25 32 39 42 52 46 41 36 40 45 52 58 61 70 50 42 37 36 37 30 26 29 31 28 34 36 32 30 28 30 40 44 44 48 63 60 58 52
29 26 26 26 30 33 39 44 56 51 45 39 38 40 44 45 46 45 46 41 40 36 35 37 32 28 26 29 32 32 42 44 39 37 36 39 48 51 55 57 71 69 61
25 21 20 25 33 39 40 55 55 45 38 37 39 42 37 39 36 41 41 45 41 40 37 37 38 39 32 31 27 30 43 55 52 47 46 51 46 45 62 62 64 74 66
22 20 22 29 35 46 40 46 44 34 33 39 45 49 43 37 36 38 44 49 52 46 38 34 34 37 39 36 30 30 39 54 67 64 60 54 50 47 46 62 72 69 73
21 22 29 36 47 46 42 42 36 39 43 52 51 50 42 40 41 45 48 50 53 50 42 36 38 41 42 40 41 33 34 46 68 74 76 66 57 54 51 51 62 70 71
22 25 34 38 42 43 43 50 46 48 54 55 57 48 42 41 43 49 52 50 47 46 53 46 57 55 56 54 48 44 44 42 58 73 79 81 68 58 54 52 52 54 62
24 27 34 40 41 41 51 51 51 59 60 63 62 47 42 44 48 50 48 45 47 64 76 66 68 69 71 68 64 53 60 54 50 72 79 80 81 71 59 57 55 55 54
26 28 32 36 45 51 54 54 59 68 69 68 63 48 45 46 47 46 46 48 67 78 85 84 77 78 79 83 79 72 69 70 55 60 76 80 84 83 74 61 58 60 57
28 33 39 44 50 52 58 60 67 68 69 75 60 50 45 43 46 43 49 66 80 86 89 92 87 87 87 88 90 89 93 83 67 57 66 73 77 81 84 76 60 64 66
31 37 39 44 53 60 67 69 67 74 79 70 54 43 37 41 40 44 57 80 86 88 93 94 92 92 93 94 98 98 97 95 79 68 53 65 74 75 80 81 72 73 76
32 36 42 48 57 63 67 70 77 80 76 54 42 37 41 39 44 51 72 83 88 92 96 97 97 96 95 97 98 99 99 99 91 77 66 47 59 68 75 78 72 81 91
33 39 47 56 63 69 72 76 77 67 52 43 38 40 42 45 47 59 80 88 93 97 99 99 98 97 95 98 99 98 98 97 96 92 80 59 49 59 67 76 79 84 98
35 42 49 57 62 67 71 65 55 48 42 38 42 44 46 46 52 68 87 91 94 88 99 100 93 91 92 96 95 93 92 90 91 91 89 73 53 49 61 63 76 82 98
43 49 54 58 57 57 52 50 46 42 40 44 45 46 45 49 56 76 88 85 70 75 99 98 89 87 89 94 97 97 99 99 97 93 90 77 61 45 48 52 66 81 94
47 50 54 55 53 51 50 48 45 42 45 48 45 41 44 50 60 74 77 73 65 84 98 97 85 82 89 95 96 98 99 98 97 95 87 78 65 50 43 38 51 69 86

GFSMA_prec_cthk_018.txt.gz
RH
77 76 76 76 77 76 71 69 65 56 52 50 48 39 33 30 26 26 29 24 23 24 24 25 27 29 32 33 34 36 36 35 33 30 28 26 29 32 33 39 43 56 71
89 86 86 85 86 83 74 67 62 56 54 51 45 35 33 31 30 28 28 30 25 23 23 24 23 23 24 26 28 30 33 34 32 33 32 31 28 28 34 33 34 44 59
85 87 87 88 82 73 69 62 56 53 51 45 42 38 36 36 35 33 32 31 31 27 25 23 23 23 22 21 21 24 27 29 32 32 33 33 33 32 28 32 35 34 42
81 82 77 73 65 59 55 55 51 46 45 42 41 38 38 36 35 34 35 31 32 31 32 28 28 27 25 24 23 22 22 25 28 31 32 33 34 37 37 32 30 37 34
71 65 59 56 55 53 51 50 47 44 45 43 40 36 35 32 31 35 40 36 32 30 28 28 25 25 23 24 24 23 22 23 25 26 29 32 34 38 40 36 32 30 35
55 53 52 51 51 51 51 50 48 46 43 41 37 34 33 28 28 31 36 31 29 29 24 23 23 23 21 17 16 17 20 20 22 24 26 28 32 33 37 46 37 35 31
50 51 50 51 53 54 51 49 49 48 43 39 31 32 30 29 36 35 35 36 33 32 30 29 26 27 23 21 18 20 15 16 18 20 22 25 29 33 34 37 48 42 38
55 58 59 60 58 55 52 47 39 32 32 41 37 31 29 27 31 43 39 35 36 35 38 34 34 30 26 23 23 19 21 20 15 16 19 21 24 30 36 36 38 50 50
61 62 60 57 53 47 38 33 31 32 32 34 37 33 33 31 33 34 39 42 46 45 42 40 40 38 36 34 31 33 29 21 18 17 15 17 22 25 32 38 38 41 49
62 58 52 45 38 33 31 31 29 29 32 33 32 37 40 38 42 42 43 49 47 44 49 47 46 43 42 36 29 33 30 21 20 19 17 18 17 27 28 35 40 42 47
54 50 46 39 34 31 30 29 32 34 38 42 50 48 44 38 40 42 39 39 40 44 44 42 39 42 48 39 30 33 29 20 22 24 21 19 20 23 32 35 43 45 49
51 50 46 37 32 30 31 33 34 41 50 54 49 44 39 41 41 44 44 45 44 36 46 42 43 45 42 36 30 27 27 20 20 26 28 25 24 26 33 36 40 46 51
43 38 33 31 32 31 35 42 48 45 43 47 48 40 42 46 49 54 54 48 48 38 40 44 46 49 47 43 39 36 30 21 21 28 34 35 36 36 42 49 47 47 62
36 33 30 30 31 35 43 49 50 47 46 43 43 47 53 56 59 58 54 54 49 44 41 40 41 41 41 41 40 32 34 33 34 32 43 49 52 52 53 60 55 58 59
33 32 33 33 41 41 44 54 54 47 47 48 52 56 59 60 61 58 55 56 57 50 42 40 40 39 39 42 43 41 38 38 36 34 42 58 61 55 57 66 68 61 57
35 33 34 41 43 45 52 55 48 58 60 55 57 59 63 66 64 60 58 59 60 58 50 43 42 50 55 53 54 54 53 45 40 36 36 55 73 66 60 62 63 62 67
35 32 32 37 40 39 40 49 60 60 60 58 65 70 72 70 67 62 60 60 59 60 55 35 56 62 63 65 66 64 63 60 55 57 47 49 72 76 67 60 58 53 60
35 34 33 36 39 46 50 57 60 57 58 64 70 72 74 76 62 59 58 61 61 56 54 56 69 72 73 72 72 70 70 72 70 76 62 61 66 78 79 71 62 58 54
36 35 38 43 46 43 42 50 54 61 66 71 71 77 80 66 57 54 52 54 53 54 68 77 78 81 80 81 78 79 76 78 86 90 66 59 59 75 85 83 71 61 57
33 36 41 43 42 39 44 53 60 69 74 75 80 81 67 51 45 44 47 49 53 63 82 85 83 85 87 87 88 85 86 90 95 98 87 65 55 64 74 82 82 69 62
34 37 37 43 43 46 52 63 70 76 77 77 78 58 47 42 38 44 47 51 59 75 86 89 89 91 94 94 91 87 88 91 97 99 97 80 65 67 77 83 89 79 69
36 37 39 46 56 57 57 67 71 72 71 63 49 44 41 42 48 47 48 54 66 85 90 93 83 96 97 92 90 89 94 97 96 98 98 92 83 63 70 78 84 81 75
36 40 42 50 52 55 57 60 63 61 52 46 43 41 44 49 51 51 54 63 80 89 79 70 89 99 94 89 87 87 92 97 97 96 98 96 85 70 62 72 72 79 77
40 43 47 48 52 52 52 51 49 47 44 43 43 48 51 49 51 50 57 68 83 86 78 79 97 99 89 83 87 92 92 92 94 93 94 95 92 81 67 65 69 76 79
42 46 47 50 54 55 52 49 48 46 47 44 52 52 48 44 47 51 55 71 83 83 78 88 97 94 77 75 84 93 95 92 91 90 89 90 89 81 74 54 65 70 82
43 44 46 50 54 58 51 49 50 51 50 55 54 48 43 39 42 52 57 70 85 82 73 95 95 94 78 78 89 93 96 98 97 98 94 87 87 82 74 56 56 65 75

GFSMA_prec_cthk_021.txt.gz
RH
77 74 85 85 84 86 84 82 77 69 60 54 51 48 44 39 38 35 36 31 30 28 26 24 23 23 23 23 24 27 29 30 30 28 28 29 30 28 28 30 34 38 43
83 84 83 86 86 88 84 79 68 57 53 53 49 45 43 41 39 39 36 35 32 31 27 25 24 23 22 21 20 20 21 24 27 29 29 27 28 29 29 28 27 33 37
88 83 84 84 86 78 65 60 57 55 55 52 49 45 40 39 40 39 38 39 41 38 36 31 27 25 24 24 23 22 21 20 20 23 27 28 27 29 30 31 31 28 32
79 80 77 71 63 57 56 55 53 50 47 47 45 41 37 36 37 38 34 41 48 38 40 38 33 27 24 22 22 22 21 21 20 20 20 24 28 28 29 31 32 34 30
65 61 56 53 50 51 51 51 51 51 50 44 40 41 38 32 37 32 33 37 47 44 42 33 35 24 22 21 20 18 22 26 20 19 19 20 21 26 29 31 33 33 33
48 48 49 49 52 55 57 56 54 50 47 42 42 40 33 37 33 34 39 46 45 43 44 41 36 37 34 27 22 20 23 24 26 25 18 17 18 21 25 29 32 34 34
50 53 57 59 61 62 61 58 55 50 41 35 38 42 40 33 34 37 39 45 46 40 43 41 43 42 36 32 31 31 24 23 23 21 16 13 13 16 20 26 29 34 35
58 64 67 69 66 62 58 52 48 43 39 36 40 41 35 29 30 37 40 42 39 43 42 46 42 42 42 38 37 32 36 27 23 20 17 14 12 12 14 19 27 31 35
67 67 65 62 58 52 51 45 43 43 36 33 33 39 38 36 36 36 34 33 35 41 46 42 41 42 44 39 37 40 36 31 25 20 17 18 18 14 13 14 19 28 34
64 61 56 54 52 45 45 44 42 40 35 37 42 41 42 44 45 39 38 36 41 43 47 45 48 44 39 37 39 42 36 26 25 22 17 18 19 21 18 16 16 19 31
57 54 51 52 52 47 45 44 42 41 42 45 44 42 41 46 45 42 36 38 43 46 48 50 51 46 43 42 39 40 39 34 25 21 18 17 20 24 24 23 23 23 29
51 48 46 40 37 44 45 45 48 42 42 49 44 40 45 43 41 43 44 41 47 42 51 51 44 48 46 45 45 44 40 35 30 27 20 20 21 27 30 31 26 30 26
48 45 38 37 36 42 43 44 43 40 56 55 48 44 46 48 51 51 56 51 52 45 45 46 48 50 50 48 46 44 38 36 32 27 25 22 20 25 30 29 28 34 36
41 35 36 39 41 45 47 45 51 58 60 60 49 57 51 53 59 62 65 66 57 49 49 51 53 52 51 49 46 44 40 38 37 32 31 30 24 29 36 37 34 41 48
34 37 40 42 44 43 40 51 54 62 64 56 62 69 61 61 66 68 68 70 70 59 53 53 52 55 52 47 48 52 51 49 49 46 36 32 25 29 39 45 44 45 52
38 44 43 39 37 41 42 52 47 48 63 60 75 73 61 67 72 73 69 76 75 67 57 54 54 52 50 54 62 61 57 55 51 51 49 35 31 26 38 51 52 50 54
49 47 44 41 39 40 43 42 50 62 63 72 74 67 65 74 73 75 77 76 71 68 64 50 51 46 53 65 66 67 65 63 60 60 61 53 43 39 33 49 54 53 52
52 48 43 41 45 46 43 44 46 59 57 63 62 68 74 76 79 80 76 68 60 57 59 51 43 52 66 72 72 72 73 74 71 67 73 74 67 61 40 48 56 59 54
51 47 43 45 45 45 42 46 48 49 54 60 68 75 79 78 76 64 56 51 46 52 54 51 47 63 73 76 77 80 81 81 79 80 81 84 83 69 51 46 54 63 59
52 47 45 47 46 44 53 50 49 55 61 68 74 77 73 68 50 46 41 42 51 50 50 54 61 75 80 80 81 88 86 82 78 84 89 94 90 75 57 50 54 67 71
52 48 50 48 48 54 60 57 50 60 66 68 68 65 56 45 41 38 44 47 52 51 54 62 77 81 74 76 92 90 86 80 79 86 93 96 97 88 81 60 56 66 77
54 49 52 50 50 56 53 50 48 53 57 57 56 49 45 45 47 51 51 49 48 54 62 74 81 75 75 91 92 90 82 77 78 89 96 95 98 95 93 80 65 64 78
53 56 52 49 49 51 46 44 43 45 48 50 47 47 47 49 55 53 50 47 53 59 70 81 84 79 88 92 92 79 80 83 86 89 98 96 96 97 92 90 67 52 74
54 51 52 51 49 49 48 46 44 43 48 49 50 49 54 56 52 43 40 46 56 64 79 86 78 79 92 92 80 75 81 85 87 85 91 92 92 90 86 86 67 50 65
47 54 52 51 51 54 55 50 46 45 50 53 54 57 55 46 43 35 37 50 57 69 80 77 71 89 86 88 71 74 83 85 88 93 94 97 91 89 86 87 66 51 63
53 53 50 50 51 58 54 51 45 44 50 54 58 59 51 42 41 35 35 42 57 72 72 67 85 90 89 92 76 78 89 92 98 94 97 92 93 90 86 79 65 54 62

GFSMA_prec_cthk_024.txt.gz
RH
79 73 67 69 69 70 70 75 74 69 62 56 54 51 46 45 44 42 42 36 32 31 31 30 28 27 25 23 22 22 22 23 25 27 28 29 30 28 25 26 27 26 29
64 67 67 74 69 69 71 67 61 53 49 48 47 44 43 42 41 41 43 39 33 32 36 36 31 29 28 27 26 24 24 23 22 21 23 26 28 30 30 26 26 27 26
65 66 69 68 64 60 55 50 46 44 42 42 42 42 40 39 37 34 32 35 35 35 41 40 36 34 29 26 25 24 22 22 22 23 23 22 22 25 29 31 27 25 26
62 65 63 55 48 42 42 43 46 47 46 45 43 38 38 37 35 30 36 37 34 42 44 44 42 35 32 28 24 24 24 25 25 21 20 21 22 21 23 28 32 28 26
51 48 45 41 41 45 50 52 51 51 49 47 41 37 36 35 34 33 33 33 37 48 52 52 45 45 39 34 29 24 24 25 24 27 27 22 18 19 21 22 26 34 32
42 42 45 48 52 54 55 55 54 54 52 47 39 35 36 38 32 31 36 42 42 46 50 48 45 43 42 39 37 37 34 27 31 31 29 23 22 17 15 18 21 25 32
45 49 53 55 57 58 58 55 52 45 40 36 35 35 34 32 31 33 36 35 39 44 46 47 46 49 45 39 41 39 31 36 35 30 28 25 23 19 14 14 14 19 24
49 54 58 59 57 54 49 46 41 36 38 39 37 32 33 34 31 32 31 34 38 42 44 45 45 43 45 43 39 33 37 33 28 27 26 25 24 23 21 15 12 13 16
59 63 63 63 58 49 45 38 35 39 42 38 35 37 36 36 37 35 33 28 28 31 34 36 40 42 42 38 31 30 33 31 29 25 22 22 21 22 23 23 22 14 13
70 70 68 59 47 42 40 35 38 40 40 37 35 34 37 37 37 33 33 33 34 35 33 32 33 37 38 35 33 33 34 32 29 24 23 22 22 21 22 25 30 23 20
70 63 52 40 34 31 31 35 39 42 40 38 36 33 36 36 34 33 32 33 30 27 30 41 48 46 45 41 36 38 38 34 32 30 26 24 25 26 24 30 34 34 28
61 49 39 33 30 32 33 39 44 42 40 39 37 47 46 43 39 41 38 35 34 34 34 42 48 49 50 46 46 45 40 37 35 32 29 26 25 28 29 29 33 35 35
51 46 40 33 33 34 39 43 41 41 42 43 53 55 53 53 52 54 51 43 53 41 40 44 45 49 50 49 49 46 38 34 31 30 29 28 29 30 32 31 31 31 33
53 47 37 35 35 41 44 47 42 39 49 52 58 62 65 62 63 72 63 57 53 48 46 49 54 53 53 49 49 45 39 36 34 37 36 35 35 34 32 32 27 31 31
49 39 38 39 43 43 43 47 38 50 59 56 60 67 71 72 74 75 68 71 70 59 51 53 56 58 56 51 47 41 38 38 44 44 41 38 37 40 35 30 25 31 35
41 41 44 47 48 45 43 47 49 50 48 53 62 66 75 76 77 70 65 70 70 75 64 59 53 54 55 49 42 38 42 48 46 45 46 47 48 48 40 33 30 31 41
45 51 52 50 49 49 55 56 51 45 48 50 61 62 73 77 72 64 71 72 72 72 55 48 45 47 45 39 38 43 51 52 51 57 60 55 54 53 51 45 43 33 42
54 58 54 51 51 53 55 48 42 50 47 46 52 54 62 67 67 74 71 64 54 44 44 40 41 41 41 40 47 57 61 62 63 64 60 63 62 69 70 62 58 43 41
62 62 55 53 53 55 58 53 56 59 51 48 51 52 60 68 71 66 53 41 37 36 40 46 42 40 45 52 59 68 66 65 69 73 73 73 73 72 74 75 65 55 44
67 65 58 55 55 56 57 56 65 62 50 48 55 59 62 60 52 43 38 35 36 43 43 43 44 46 52 61 67 65 64 75 71 73 66 62 70 78 79 76 66 58 48
66 64 64 58 59 60 59 60 62 58 48 47 51 54 54 46 42 38 39 41 45 44 43 44 47 52 61 71 71 72 82 79 74 67 63 66 77 82 89 78 77 74 62
69 66 68 65 65 65 60 52 54 43 39 42 46 46 46 44 43 45 49 47 44 42 45 54 57 66 76 79 78 87 82 78 64 65 67 63 77 87 97 92 89 84 77
69 73 69 66 64 66 50 51 47 38 37 40 42 41 44 48 47 51 46 42 36 44 55 60 67 79 80 78 84 80 80 65 61 67 75 65 78 83 97 93 85 76 68
68 64 66 67 68 64 53 48 51 45 43 42 40 43 47 52 49 43 38 34 33 39 52 65 72 72 70 83 83 82 72 61 66 68 72 67 78 78 85 85 77 72 74
67 67 66 64 65 56 46 50 57 52 45 42 44 47 52 55 43 42 38 34 34 38 49 61 62 63 81 86 85 87 70 71 73 76 79 79 81 83 79 76 73 69 69
67 66 63 62 56 51 48 53 61 52 44 45 47 50 51 47 45 42 37 35 35 39 42 56 68 79 87 86 86 89 76 77 84 85 84 90 90 91 84 80 78 77 77

GFSMA_prec_cthk_027.txt.gz
RH
66 69 68 67 58 62 64 64 63 59 52 45 41 41 39 39 39 36 34 34 35 36 34 34 36 33 33 31 29 28 26 24 23 22 22 23 26 29 30 32 30 28 32
64 64 58 57 61 61 60 61 53 43 39 40 43 42 40 38 36 35 35 34 33 32 34 32 34 38 36 33 30 28 27 26 24 24 24 24 21 21 25 27 29 32 29
56 57 57 58 59 55 49 40 36 39 41 42 42 40 37 36 37 36 33 31 32 33 32 38 44 43 41 38 35 30 28 29 29 23 23 23 22 22 21 22 25 27 31
55 56 57 55 44 35 35 39 42 43 44 44 43 40 35 34 35 34 32 32 34 34 38 43 44 43 40 40 37 34 33 33 29 28 28 25 23 20 19 20 21 23 26
54 51 44 39 37 42 44 47 49 50 47 44 40 32 29 31 31 31 29 33 35 40 43 45 44 42 41 41 40 38 36 35 32 33 31 33 26 19 18 17 17 19 21
45 41 40 41 49 53 56 56 54 47 39 33 29 28 30 33 32 29 31 34 37 38 40 41 40 41 41 41 41 42 45 46 41 34 29 29 27 25 20 15 15 15 16
42 43 45 51 58 60 61 56 45 35 32 29 29 30 29 25 27 28 28 27 29 33 37 38 42 41 41 43 44 46 44 43 34 31 31 27 22 22 22 21 17 16 17
48 52 56 59 62 57 49 40 33 31 31 32 33 32 29 27 27 27 27 25 28 30 35 40 41 45 46 46 45 43 37 32 27 28 28 33 29 21 20 20 20 21 21
53 60 62 61 58 51 45 38 34 32 33 34 38 36 34 33 28 28 29 28 26 24 25 28 33 39 45 43 40 34 33 31 25 23 22 26 30 31 24 21 21 21 23
57 60 63 59 52 42 40 37 35 34 36 41 40 37 34 31 31 33 36 34 32 31 28 29 30 34 35 34 36 37 35 31 27 27 27 25 27 30 32 28 27 28 31
56 57 60 56 52 47 38 33 34 38 42 43 40 37 41 43 45 44 35 35 33 32 28 25 33 35 39 39 39 40 42 38 32 31 32 32 30 32 33 33 27 28 29
62 53 52 44 42 39 35 35 39 43 46 46 46 49 51 50 52 50 46 44 39 34 32 35 37 41 45 44 44 46 44 37 35 35 33 31 28 29 31 38 37 36 31
62 50 43 47 51 39 36 41 45 45 46 47 49 52 53 57 60 64 58 56 48 39 40 39 44 43 46 51 50 48 43 39 31 30 30 30 32 33 36 37 41 40 38
54 46 48 60 52 38 41 46 46 48 48 47 55 55 57 63 65 69 68 66 57 52 47 43 47 51 54 53 51 49 42 36 34 32 30 32 36 38 37 39 43 42 37
54 52 53 51 44 42 44 47 49 50 50 53 53 54 60 61 63 66 68 72 74 67 48 51 52 56 50 48 47 42 40 39 34 29 32 34 36 40 43 45 46 44 36
63 54 50 46 48 52 55 57 57 56 60 59 56 57 58 57 62 64 66 69 71 67 64 60 51 42 41 40 40 41 37 32 30 35 39 42 45 47 48 46 43 43 36
76 62 52 54 57 57 57 59 61 59 57 58 62 55 50 50 54 59 61 68 70 74 65 49 35 31 32 35 35 33 33 36 40 46 49 50 51 53 52 50 51 54 44
61 58 61 63 57 57 60 58 55 60 65 72 68 58 54 52 52 55 61 63 62 59 36 31 29 33 35 34 35 36 38 44 48 52 55 54 59 62 61 58 60 61 59
69 74 63 65 64 64 61 66 68 73 72 71 67 56 48 54 57 53 50 51 41 35 35 37 37 35 36 36 40 43 47 51 50 53 57 61 65 61 66 65 68 70 67
79 65 68 71 72 74 69 66 73 75 74 65 59 50 47 48 47 43 40 39 37 41 42 39 35 36 40 44 50 56 57 57 58 65 65 69 70 63 64 65 69 75 72
81 72 73 78 79 72 71 73 75 69 66 58 48 41 43 41 38 38 36 40 46 44 39 34 39 43 47 53 61 63 63 64 65 63 61 59 56 50 54 65 78 76 72
75 75 78 79 77 73 76 69 62 63 56 40 35 37 38 37 38 37 41 48 45 41 34 38 44 49 56 64 62 63 71 68 60 59 53 42 53 50 56 71 88 85 86
79 80 79 73 77 75 70 61 63 55 49 48 44 40 38 41 42 45 48 44 40 37 35 39 44 53 61 65 63 72 72 71 67 52 52 51 54 52 60 79 88 90 82
79 78 78 74 72 68 61 56 54 52 54 56 51 41 43 44 46 47 43 40 39 38 38 40 46 49 56 59 76 81 77 74 66 59 62 61 60 58 63 74 79 82 76
76 68 69 68 58 52 53 50 52 55 58 61 51 46 46 48 49 44 42 40 36 37 40 42 45 49 60 75 83 85 80 77 63 65 67 74 72 72 71 74 76 80 75
68 63 55 51 48 47 49 50 52 57 60 57 51 48 50 49 48 45 41 35 34 36 39 43 45 48 63 80 86 85 81 77 69 68 82 82 78 83 78 81 86 79 68

GFSMA_prec_cthk_030.txt.gz
RH
55 63 64 61 55 52 51 54 55 50 45 39 38 38 38 37 36 33 32 34 33 33 32 33 33 32 33 33 33 32 30 29 26 27 26 25 24 24 25 26 28 31 31
57 61 59 53 52 53 51 52 45 38 34 36 37 38 37 34 32 33 33 31 31 32 30 32 33 34 36 35 34 33 30 28 28 24 23 24 22 22 23 23 24 27 29
51 56 53 53 57 51 48 37 32 35 39 40 39 39 37 35 34 31 31 30 31 30 32 34 37 39 39 39 37 36 35 33 31 27 25 22 20 18 19 20 22 23 24
48 50 55 55 47 40 32 34 38 41 43 45 43 39 36 29 29 29 29 29 29 30 36 42 42 40 38 39 39 40 41 38 35 33 31 28 25 20 16 15 17 20 21
45 48 48 43 36 34 39 44 47 49 50 46 39 33 29 29 33 34 31 29 30 33 36 38 40 40 40 40 41 41 42 41 41 39 34 34 30 23 19 16 16 15 17
40 38 38 39 38 40 47 53 56 55 48 37 31 29 30 31 33 32 29 27 29 31 33 36 37 36 35 35 36 37 38 39 41 40 39 33 30 25 23 23 17 18 18
38 38 39 41 48 55 56 55 51 46 38 34 32 33 32 31 31 31 27 27 27 30 33 35 35 34 35 37 38 39 42 44 43 40 38 39 36 23 23 25 28 21 19
40 42 48 54 60 63 61 49 49 43 40 38 38 37 38 37 36 33 26 26 29 29 27 29 31 34 35 38 40 39 39 41 44 41 36 32 25 26 26 29 30 28 20
48 52 56 60 58 56 55 58 47 44 41 38 40 42 43 42 39 36 35 37 38 37 37 33 31 32 32 30 32 33 33 34 35 31 26 28 27 31 33 27 28 28 25
53 55 59 65 60 53 46 43 43 44 40 42 45 48 49 47 44 42 42 45 43 44 39 37 29 26 24 24 25 28 33 36 37 37 34 33 32 34 38 36 29 27 27
58 59 61 65 57 45 39 41 49 48 43 44 48 51 51 49 50 51 48 50 51 52 47 41 39 35 36 35 29 29 32 33 36 38 38 39 35 31 33 39 35 27 27
65 70 67 62 54 45 45 47 44 46 45 47 53 56 53 51 56 57 56 52 53 58 51 49 44 38 37 34 36 37 35 39 41 44 44 42 36 28 30 32 38 38 35
71 79 72 60 59 55 52 44 44 45 49 55 58 56 59 62 67 67 63 63 64 58 55 47 46 47 47 39 40 42 39 40 42 42 40 34 30 29 27 30 36 39 40
76 77 61 70 52 51 59 56 49 50 53 55 55 58 60 59 58 63 71 73 72 61 53 52 50 52 43 48 45 42 38 39 39 39 37 34 27 29 33 39 39 40 42
81 76 69 68 53 59 50 50 51 57 57 58 57 62 63 63 60 67 76 71 66 58 51 48 55 50 50 47 39 34 34 34 32 31 29 30 35 38 42 43 42 42 43
68 71 66 63 57 61 54 58 57 58 64 64 64 65 66 66 66 69 60 62 61 62 62 57 54 50 42 27 25 25 27 30 30 31 32 34 36 38 42 44 44 42 40
79 77 74 64 66 62 60 60 64 63 68 72 72 69 72 72 68 60 58 54 57 61 62 56 47 35 27 25 27 30 31 31 31 33 36 40 42 45 45 47 48 46 43
79 72 71 70 64 65 66 68 69 70 70 74 76 80 76 71 60 58 54 56 56 55 48 39 30 31 32 32 32 32 32 34 38 40 42 43 43 43 46 50 51 51 48
68 71 76 72 69 73 74 76 68 68 78 79 78 74 67 64 57 51 50 48 40 40 40 38 36 37 31 31 34 38 41 44 45 47 46 45 49 53 56 57 55 54 54
73 78 79 71 75 76 78 77 79 76 81 73 71 67 54 45 44 44 44 38 39 40 43 41 36 30 30 35 42 46 44 46 46 53 54 57 57 56 61 61 55 56 63
81 85 80 82 77 75 77 85 78 76 72 66 55 46 44 41 41 39 38 40 42 46 42 36 31 29 33 39 48 52 51 50 60 59 58 59 55 50 49 49 42 48 62
84 82 84 80 77 82 79 76 70 64 56 48 43 46 49 46 39 39 42 43 48 42 37 33 31 32 37 43 49 53 53 62 66 64 64 55 51 44 44 46 42 52 73
95 92 84 80 79 72 66 62 53 49 48 46 47 51 56 48 42 43 44 49 45 42 37 34 33 37 39 43 45 57 70 72 71 65 62 52 52 48 48 45 45 56 78
92 83 79 71 65 58 52 47 45 45 45 49 52 57 57 48 46 47 48 45 42 38 34 34 36 38 41 44 53 69 76 76 70 69 69 56 61 56 55 56 61 64 76
84 75 68 59 47 39 39 39 42 45 46 50 55 57 50 48 49 49 47 43 37 33 33 35 37 40 41 48 61 72 79 77 71 66 72 66 67 66 63 67 74 70 78
67 52 44 32 30 33 39 43 47 49 49 53 57 56 57 55 52 50 47 41 35 34 34 34 37 41 43 46 60 74 81 83 80 69 72 66 70 76 71 70 77 75 74

GFSMA_prec_cthk_033.txt.gz
RH
47 53 62 61 56 49 53 52 51 47 44 41 39 38 38 36 32 28 27 29 30 29 28 31 30 31 32 33 35 35 33 32 31 29 28 24 22 22 23 23 22 22 22
50 56 58 57 53 51 55 55 49 41 38 38 40 40 38 31 27 28 29 28 26 27 27 30 32 34 37 37 36 36 36 35 33 32 31 29 25 21 20 19 19 19 20
50 48 50 52 52 55 59 50 35 35 41 44 43 41 34 28 26 25 24 24 25 25 26 31 34 37 38 39 37 36 37 38 38 36 33 29 27 25 23 21 19 16 16
48 46 47 50 51 56 46 35 35 42 45 46 42 38 36 31 28 28 28 28 27 27 29 33 34 34 36 38 37 42 43 41 39 40 40 36 29 25 23 22 20 18 15
44 44 46 49 52 41 37 37 42 45 47 43 38 39 35 35 34 32 32 32 29 31 36 35 36 37 36 34 35 37 38 40 41 43 41 37 31 28 23 20 20 21 22
42 44 46 44 40 38 39 45 47 45 44 40 42 42 40 35 34 34 35 34 33 33 33 34 36 37 37 36 36 37 36 36 36 39 37 37 37 29 26 24 23 22 22
40 40 39 40 40 40 45 49 50 47 46 49 52 41 41 39 40 40 39 39 35 35 33 31 33 33 33 33 34 34 35 36 37 39 40 42 34 31 26 23 27 28 27
37 38 41 44 45 49 54 54 49 45 46 45 45 50 51 47 46 46 46 43 40 38 38 38 38 37 36 37 36 34 30 29 30 31 30 27 26 30 33 30 29 29 27
41 44 47 48 51 52 57 56 53 45 45 50 50 51 52 49 51 54 54 53 51 52 54 53 50 46 42 40 42 39 34 34 33 31 33 33 33 33 38 38 36 31 27
50 52 54 55 58 60 67 64 60 50 48 48 49 51 55 59 60 56 57 58 61 62 59 59 56 55 50 49 46 41 39 35 31 31 31 33 37 37 40 40 37 29 26
56 61 62 64 64 76 73 58 56 48 49 56 58 59 62 61 59 60 58 63 66 66 66 64 65 62 61 58 53 47 40 34 29 30 31 35 38 41 42 42 41 30 28
67 69 65 69 74 85 78 59 70 60 53 57 57 61 62 62 63 65 63 66 67 66 66 62 71 77 76 61 54 47 41 36 35 33 33 35 34 36 39 40 36 30 28
74 78 68 75 85 82 66 60 52 55 58 59 61 61 65 64 63 64 66 63 61 61 67 72 81 82 73 67 56 53 45 43 41 32 32 34 34 33 31 28 26 28 33
77 72 80 94 87 65 65 64 63 55 57 54 59 64 65 63 61 62 63 65 67 68 65 71 76 73 73 63 57 56 49 38 30 27 26 27 25 27 30 31 36 37 37
86 93 89 77 75 69 70 56 61 58 63 66 68 68 65 67 71 74 71 73 72 68 69 70 66 63 60 55 49 38 26 22 21 21 22 24 31 32 37 39 39 40 41
84 82 75 77 74 73 65 64 67 67 70 68 65 63 64 66 69 70 70 73 69 70 60 53 51 49 45 38 28 26 24 25 27 29 31 32 32 35 39 39 39 42 42
73 72 74 78 74 73 72 76 74 70 65 65 64 64 63 72 72 69 69 63 57 55 51 41 39 35 29 28 28 30 31 31 32 32 32 33 36 33 34 36 39 41 40
72 76 77 75 79 78 80 79 76 72 62 62 68 69 66 65 66 63 51 47 47 47 46 36 32 31 32 33 29 30 32 33 34 36 37 36 34 35 37 41 46 46 44
72 74 77 82 83 82 81 78 72 70 74 71 65 61 57 53 45 40 41 43 43 42 41 38 37 38 33 30 29 30 32 35 37 36 35 38 42 45 46 47 52 53 50
73 78 78 81 87 88 82 81 80 77 69 64 53 48 42 36 39 40 41 41 39 40 42 44 41 34 32 31 32 34 32 38 37 41 48 52 55 52 52 49 50 53 53
74 77 80 87 94 90 83 81 78 70 58 50 42 38 37 37 40 43 43 39 40 43 44 43 38 34 31 32 35 36 37 36 46 54 56 58 56 53 50 44 41 44 44
90 89 89 95 96 85 80 71 66 48 37 38 41 44 44 43 47 51 46 42 44 45 45 43 38 33 31 34 34 37 40 48 56 61 61 59 59 56 50 46 41 41 39
90 91 96 96 90 80 75 51 31 32 37 41 43 43 44 48 51 49 45 47 47 47 45 42 35 34 33 34 34 37 47 57 65 64 64 61 63 58 59 51 48 51 46
93 94 90 84 77 60 30 26 29 33 40 44 45 45 47 48 46 45 49 50 49 46 45 37 35 35 35 33 35 41 51 60 66 67 69 64 66 60 58 54 54 61 60
93 80 74 59 40 22 22 25 31 38 43 45 46 47 49 47 50 48 52 49 49 45 40 38 37 37 36 35 38 37 48 61 67 70 71 72 71 63 60 56 59 71 67
71 61 48 28 21 18 21 27 35 43 47 50 49 50 53 52 58 55 56 52 50 45 41 39 39 39 40 38 38 40 44 62 73 74 76 75 71 74 61 67 68 71 68

GFSMA_prec_cthk_036.txt.gz
RH
48 49 53 64 64 57 54 51 49 46 41 38 38 36 36 37 35 32 26 24 25 25 25 29 32 33 30 32 34 35 33 32 30 29 27 27 26 25 25 23 22 20 19
46 48 51 57 56 54 54 54 52 44 36 36 39 40 39 36 31 28 25 24 23 24 25 29 33 35 36 34 31 33 32 32 32 31 31 29 28 26 24 22 22 21 19
54 53 51 53 53 52 54 54 43 35 36 40 41 40 34 28 29 29 28 29 28 25 24 28 34 36 37 37 35 35 35 37 35 33 33 35 36 30 26 23 21 20 19
55 52 50 53 51 53 54 40 36 38 40 42 41 33 31 34 37 36 35 33 30 29 32 36 37 36 36 36 36 36 36 37 38 37 38 36 36 33 29 24 21 22 21
52 51 49 52 54 52 39 38 40 43 43 42 38 35 36 39 38 39 35 35 34 35 37 41 41 40 40 38 35 36 37 38 41 41 40 36 34 35 34 27 21 19 22
50 50 51 53 50 41 40 42 44 42 42 39 38 37 38 38 41 42 44 46 43 39 37 37 38 37 36 35 34 33 35 35 37 39 39 38 38 33 29 29 29 28 24
50 50 51 47 41 41 42 42 44 45 46 45 42 38 40 45 47 46 45 44 44 45 44 42 40 39 39 38 38 37 36 37 39 40 39 39 37 33 29 31 30 35 33
50 48 46 42 42 42 43 46 47 51 54 54 53 51 50 50 56 57 55 56 56 53 48 48 49 49 49 49 48 44 43 41 41 41 40 40 42 41 37 38 40 40 38
49 46 44 44 45 48 48 50 58 64 68 69 54 63 59 60 56 57 58 58 57 56 58 60 63 62 59 58 56 52 49 46 43 42 42 47 49 44 42 39 36 37 39
52 49 52 54 55 59 57 63 66 74 81 69 59 57 59 60 58 53 55 60 59 61 62 62 63 65 64 63 57 55 51 47 47 46 49 46 46 47 43 43 41 40 38
60 64 65 62 67 72 71 87 87 83 72 64 60 58 60 59 60 59 58 59 56 54 57 61 67 67 64 62 63 65 62 57 56 54 49 44 45 45 42 38 37 36 34
73 75 73 72 76 85 90 86 89 81 65 60 58 58 59 62 63 62 57 52 50 47 48 52 59 64 69 75 80 76 70 65 65 56 51 45 39 38 35 34 33 32 30
82 80 82 85 84 84 92 86 72 63 66 58 62 63 64 63 61 60 55 54 57 53 55 59 62 71 72 74 74 71 69 64 59 51 42 35 26 26 26 27 24 24 29
85 84 81 77 94 83 86 74 69 66 63 66 63 63 65 61 61 61 63 64 55 57 61 64 62 62 70 71 75 69 62 53 39 28 21 19 18 18 24 25 28 34 35
79 78 78 78 84 75 74 73 68 68 69 66 65 64 63 64 67 66 59 59 64 55 47 45 49 52 52 52 47 37 28 23 22 23 24 25 25 31 30 34 38 38 38
82 75 81 77 76 78 73 73 73 74 73 70 71 69 69 66 61 58 52 46 40 40 36 36 41 44 42 38 32 30 28 28 28 29 29 30 32 36 37 37 35 33 33
76 81 80 83 79 72 75 78 80 78 75 77 70 68 64 50 40 32 30 33 34 35 35 33 36 38 37 36 35 33 30 29 29 30 32 35 35 36 35 34 35 34 32
81 83 79 71 74 78 78 84 87 79 77 73 72 65 49 31 25 30 30 31 33 37 38 34 35 35 36 37 33 30 30 30 32 34 36 35 33 35 37 38 36 35 33
81 82 71 82 89 85 87 93 83 78 78 76 68 48 34 30 30 30 31 36 39 39 39 36 36 38 37 33 30 29 30 32 34 35 36 38 44 46 45 44 41 40 40
83 79 80 88 84 88 97 93 86 81 77 70 46 31 31 33 33 35 38 42 42 42 39 40 41 40 34 31 30 30 29 32 33 39 44 49 51 50 48 46 43 41 38
75 78 90 80 86 96 97 94 83 71 64 48 31 31 35 38 40 41 44 46 46 42 41 43 44 38 35 31 32 32 32 30 34 46 48 53 53 54 53 51 45 43 40
76 91 91 97 97 97 95 93 80 64 43 27 29 34 38 41 44 46 49 46 40 40 44 46 42 38 34 34 34 33 32 34 39 51 51 53 56 56 57 54 52 47 43
93 97 95 93 92 94 89 83 56 35 24 27 32 38 42 46 50 52 48 42 40 44 46 46 42 37 35 37 36 33 33 36 44 55 56 55 57 57 62 59 53 48 45
93 97 95 91 91 84 66 44 29 23 25 28 35 42 47 53 57 56 49 45 43 48 49 47 41 38 38 38 40 41 38 33 38 54 63 60 61 61 61 62 53 46 49
89 91 90 86 72 52 35 25 21 23 27 32 41 48 57 62 63 59 54 52 52 52 54 48 44 41 42 43 44 45 43 37 33 47 65 66 67 64 63 61 61 52 58
86 79 67 53 38 26 23 23 23 25 30 37 48 58 66 64 64 63 60 62 65 62 59 52 49 46 45 45 46 46 47 44 39 39 64 70 73 77 64 62 70 62 61

GFSMA_prec_cthk_039.txt.gz
RH
50 53 51 55 66 66 60 55 52 49 40 36 34 35 35 35 31 27 26 27 27 27 25 28 32 30 29 28 29 31 29 28 28 26 26 25 25 23 23 23 22 22 22
49 48 50 52 55 54 54 50 53 45 36 35 36 37 36 32 30 30 30 29 30 28 25 28 34 37 34 33 34 30 30 33 35 30 30 31 27 26 23 22 21 19 17
52 55 57 55 51 51 52 52 49 36 35 38 40 37 34 33 32 31 30 31 31 30 28 31 37 40 42 44 40 39 39 38 35 34 35 35 36 33 31 28 25 21 23
60 57 52 51 50 51 52 52 36 36 38 40 38 37 35 31 28 29 31 33 34 36 39 42 46 45 43 43 42 42 41 40 40 40 39 40 37 33 33 30 25 23 23
62 55 50 49 49 51 53 40 35 39 42 42 42 40 35 33 35 37 38 38 37 37 38 39 40 42 44 44 41 38 38 39 41 41 40 39 40 38 37 32 26 26 27
54 50 51 50 50 51 44 37 38 42 44 43 40 39 44 43 41 44 45 44 43 45 45 44 43 42 41 40 38 37 39 40 45 46 45 44 42 39 38 32 35 35 34
52 52 49 49 50 47 40 42 44 46 48 49 51 55 54 54 45 46 49 50 50 48 50 49 49 50 50 50 49 47 46 46 45 44 43 42 42 38 38 40 38 38 40
55 54 50 49 50 46 49 52 55 56 53 59 63 65 63 61 50 52 53 55 52 52 52 53 53 53 52 52 50 47 47 49 51 52 51 48 47 48 48 46 44 44 44
58 56 55 54 52 57 57 58 62 66 69 70 70 69 64 56 53 56 55 55 55 52 50 50 50 50 48 49 45 44 42 40 41 41 43 49 53 57 53 51 49 47 48
70 68 66 64 65 65 63 64 72 79 85 90 82 74 62 58 57 58 56 57 51 48 47 48 48 48 46 41 39 42 44 45 47 48 54 56 57 58 60 58 56 52 47
74 73 73 72 71 71 71 77 84 92 95 93 71 61 56 57 57 57 54 54 51 51 49 48 47 46 41 41 43 47 53 58 61 67 66 59 57 62 56 55 56 51 47
81 79 81 79 81 83 81 86 90 95 83 72 62 58 62 62 59 59 58 60 58 53 46 39 36 35 36 39 45 51 54 58 64 66 69 70 66 64 59 49 51 47 44
85 88 88 86 88 87 85 80 86 77 69 61 61 64 62 57 58 59 58 57 53 49 45 38 33 29 28 29 34 40 42 43 44 43 38 33 30 25 25 30 30 31 36
86 90 90 87 89 85 79 90 73 74 67 67 69 66 65 65 61 56 55 51 45 35 33 31 32 27 31 34 35 36 34 31 27 24 21 19 19 19 20 27 28 28 29
89 88 90 89 84 77 84 81 80 68 68 79 74 70 65 61 56 53 44 40 31 31 29 37 34 33 33 33 32 29 26 24 24 24 24 24 24 25 28 32 32 32 38
91 93 90 81 80 90 89 76 72 74 86 83 77 71 65 62 60 41 33 26 29 32 33 35 37 37 34 33 31 29 29 28 26 25 24 25 25 26 27 34 35 35 35
94 88 78 75 86 90 82 75 76 87 93 83 79 76 70 65 50 38 24 27 32 32 35 37 41 37 33 33 35 34 29 26 26 25 25 26 27 28 32 32 31 32 34
83 80 74 79 86 88 86 85 86 94 86 82 81 78 73 62 48 26 25 28 32 36 38 42 45 37 35 35 34 31 28 26 26 27 27 27 28 30 32 36 40 40 41
74 75 77 83 90 83 79 86 95 96 90 84 83 80 73 59 27 28 28 29 35 39 43 46 42 38 37 38 36 33 30 29 30 28 28 29 32 38 42 44 45 45 43
85 84 82 83 88 88 92 95 98 98 94 85 83 75 57 31 29 32 32 35 40 45 51 49 41 38 40 38 36 32 32 33 32 32 32 36 40 42 45 48 50 49 46
79 84 79 78 91 91 96 97 97 96 92 85 73 50 34 29 32 34 36 40 46 53 52 45 41 43 41 40 36 34 35 36 36 36 36 45 51 50 53 52 51 51 47
85 76 74 92 95 93 97 98 96 93 82 63 43 32 29 33 37 38 42 48 56 58 49 46 43 44 43 41 37 38 39 41 44 41 36 44 54 55 56 57 56 52 49
89 80 95 97 95 93 92 92 84 65 45 31 25 26 32 37 43 45 52 60 63 56 51 49 46 48 46 43 41 42 46 51 48 44 41 37 55 58 60 62 59 53 45
82 89 89 89 88 88 84 68 47 33 24 21 24 29 34 41 49 56 64 68 66 60 56 52 49 50 47 45 42 44 46 52 54 50 45 37 49 59 64 65 62 59 54
84 85 86 84 78 56 42 35 26 21 21 22 26 31 40 45 54 66 70 70 68 63 61 60 58 55 51 49 45 47 50 52 52 55 48 43 51 58 66 66 68 69 63
81 68 57 47 39 34 28 24 23 25 25 28 30 36 46 53 57 63 68 66 65 68 69 68 68 64 57 54 50 49 50 48 53 56 51 44 50 62 64 71 70 73 69

GFSMA_prec_cthk_042.txt.gz
RH
51 55 55 57 59 62 68 63 56 53 44 34 33 35 37 33 29 30 30 25 22 23 26 35 37 36 35 32 31 32 30 28 28 25 25 26 26 25 23 22 21 20 17
52 51 50 51 54 57 56 52 52 49 37 33 35 36 34 31 29 25 27 32 27 27 28 30 38 43 39 35 37 37 35 35 35 33 30 28 28 27 26 25 25 20 22
53 50 52 56 57 51 49 49 49 45 33 35 36 35 34 33 29 28 34 37 37 35 30 30 34 39 43 42 39 39 43 45 44 43 41 37 35 32 29 28 29 27 26
58 57 60 55 52 49 48 49 49 36 34 37 38 37 37 35 35 39 43 42 40 44 47 40 42 41 43 46 46 46 46 46 45 45 45 45 44 41 40 37 33 28 28
72 67 61 53 48 47 46 48 45 35 35 40 42 43 46 47 48 50 49 50 44 44 47 44 38 38 41 41 42 42 42 42 46 48 48 47 48 48 46 43 40 34 36
74 62 55 49 47 47 46 47 40 38 43 47 47 53 55 55 56 53 49 47 45 44 44 42 41 42 41 39 38 36 36 39 43 47 46 45 46 48 48 45 42 40 42
57 54 55 51 48 47 47 49 47 49 51 52 60 62 63 64 64 58 56 50 49 46 43 42 44 43 43 41 40 39 39 41 41 41 39 37 37 38 41 50 51 53 53
62 59 57 54 53 55 59 56 55 55 56 63 70 75 78 72 65 66 56 52 52 48 48 46 44 45 49 49 45 41 38 35 32 32 32 31 32 34 35 43 45 51 57
76 74 70 69 69 68 66 62 61 63 65 72 79 85 86 82 74 59 56 58 55 54 51 51 51 47 42 38 37 37 33 28 31 31 36 41 44 46 47 49 53 54 55
84 77 75 77 77 73 68 67 69 73 78 83 85 84 75 71 63 62 59 59 56 58 58 56 50 46 41 35 33 29 28 28 30 33 35 40 50 54 61 64 65 65 63
79 83 84 84 81 78 76 76 79 82 83 87 77 75 66 62 64 65 64 61 61 60 57 54 46 39 33 30 24 28 22 23 26 29 31 34 38 43 52 62 67 68 70
76 82 90 89 88 82 85 85 85 84 85 80 79 73 72 69 67 64 63 64 63 62 59 50 40 32 30 27 25 22 22 25 29 32 34 36 35 34 34 35 34 38 45
77 90 91 87 88 90 91 90 88 91 83 83 76 74 73 72 72 72 70 66 64 63 58 52 42 37 35 34 33 30 26 26 26 27 25 23 22 20 19 20 25 25 31
79 83 88 88 91 91 88 88 85 80 78 75 73 78 78 80 81 77 71 68 64 58 49 43 40 37 39 40 41 31 29 28 22 19 20 20 21 21 21 21 24 28 31
85 88 91 92 92 93 88 83 76 84 88 76 78 81 84 83 82 76 72 67 63 53 42 36 38 42 41 42 44 39 29 27 24 21 21 21 21 21 22 22 28 29 32
86 91 93 94 93 87 81 73 83 88 91 92 95 92 89 86 84 80 75 69 57 46 37 37 37 41 45 45 47 38 31 29 25 23 21 20 20 21 22 22 26 31 32
90 95 98 94 88 79 70 79 86 87 95 90 95 90 89 85 83 81 75 67 55 40 40 39 41 45 46 47 45 41 39 31 26 24 25 21 22 22 22 23 24 27 30
90 95 91 81 81 75 83 82 85 90 91 96 94 91 91 89 87 79 72 58 42 41 42 38 41 44 52 54 46 44 39 34 28 30 26 23 24 23 25 27 31 35 38
78 84 79 75 78 85 85 79 84 94 98 97 97 95 94 91 85 69 50 44 44 45 46 45 45 52 55 54 52 46 38 33 33 32 29 29 32 29 30 33 36 40 43
74 71 69 81 84 90 96 85 97 97 97 96 94 91 87 78 61 49 42 45 47 45 49 50 52 57 57 55 53 47 41 34 35 35 36 40 40 37 39 42 42 44 48
65 66 78 83 82 90 91 90 92 92 92 92 90 81 64 45 36 35 36 43 48 51 55 56 59 60 57 56 53 50 39 37 39 40 41 47 51 46 49 53 56 59 57
64 75 71 76 85 85 83 89 89 89 87 83 64 46 39 33 29 32 35 41 46 55 60 63 65 63 60 57 56 50 43 43 42 46 44 47 50 48 50 57 60 55 55
64 72 77 83 89 89 88 88 85 78 68 45 36 31 31 34 37 39 43 47 52 55 59 65 64 61 58 59 58 50 49 50 47 47 47 46 54 49 48 59 61 59 58
71 74 79 85 86 85 79 70 58 42 34 31 30 30 30 34 43 48 48 55 57 57 57 57 59 60 63 66 61 57 57 57 53 52 52 49 55 51 48 57 62 64 63
71 76 77 74 67 55 45 38 34 32 32 31 32 32 34 37 41 45 53 56 55 59 68 61 62 63 64 64 64 60 60 62 57 53 53 56 61 49 45 53 70 75 67
60 57 51 48 45 37 34 31 32 32 35 36 36 35 37 37 41 46 52 57 58 55 64 71 59 69 73 72 70 70 68 67 61 56 57 60 63 52 41 48 73 73 72

GFSMA_prec_cthk_045.txt.gz
RH
60 60 62 67 69 68 64 67 62 51 47 33 34 34 33 32 30 28 28 27 25 25 26 29 36 37 35 34 34 34 35 34 35 35 34 34 31 27 24 23 21 19 16
62 65 63 64 58 57 56 53 49 50 44 34 34 35 33 31 31 28 32 34 34 32 32 31 37 42 42 40 39 38 38 39 39 37 42 41 39 38 37 32 28 25 21
64 65 60 57 58 59 53 51 51 48 44 34 35 35 35 37 37 36 38 40 41 42 36 32 36 45 47 42 39 39 42 43 45 45 44 44 46 45 46 42 39 33 29
60 60 60 60 60 55 53 48 50 49 45 37 37 39 42 43 45 47 47 45 46 46 45 42 36 38 38 41 43 43 45 44 42 41 39 39 39 40 42 43 45 44 39
64 66 71 64 59 53 50 50 50 49 44 37 43 44 46 49 52 52 54 52 53 54 51 44 40 36 37 39 39 39 40 41 36 35 37 40 40 41 41 42 42 42 43
64 74 78 62 55 53 50 50 48 47 46 46 47 46 51 55 58 60 59 59 56 51 47 45 43 43 39 36 35 35 33 33 32 33 35 33 32 32 32 32 33 36 37
71 75 66 59 58 56 53 51 57 57 53 53 54 58 60 60 63 64 61 62 59 56 49 44 46 46 42 40 39 40 36 32 31 30 29 28 28 29 29 29 32 36 41
71 63 64 64 66 66 63 60 64 66 58 58 63 68 75 73 68 59 60 53 52 54 50 50 48 47 48 46 43 41 38 31 24 22 23 26 28 28 32 34 38 43 45
71 71 79 80 79 79 75 71 68 68 64 67 73 79 77 77 70 63 58 55 56 54 57 57 55 52 51 52 48 44 38 31 24 20 18 19 23 28 31 33 38 42 43
82 82 87 86 83 86 83 80 78 72 69 75 77 82 80 74 70 70 66 61 59 59 61 61 62 59 57 54 48 42 34 25 20 17 18 21 24 26 29 33 37 41 42
86 83 80 81 85 88 90 87 80 76 80 81 84 86 76 73 72 77 74 72 70 66 67 65 66 62 59 54 47 37 28 24 19 17 19 20 22 23 26 30 33 36 40
76 76 76 79 85 91 93 91 83 81 84 81 84 90 77 71 76 79 73 73 76 79 77 73 69 67 61 53 42 33 26 21 20 19 19 20 19 17 17 20 24 25 29
88 89 83 79 84 87 89 91 88 89 80 83 88 85 79 79 82 83 87 85 80 82 79 78 74 69 60 46 41 34 28 24 24 21 19 17 17 17 17 16 20 27 28
89 91 85 81 89 89 92 93 94 86 87 88 82 81 87 87 90 93 91 85 81 83 81 77 74 71 55 47 37 31 31 30 28 26 24 23 20 18 16 17 18 25 27
78 75 79 86 89 93 95 95 91 89 85 78 79 84 91 90 91 87 85 83 84 80 78 76 68 54 43 42 41 38 37 38 36 31 29 24 20 17 16 18 18 21 27
75 81 84 88 91 92 96 96 89 88 80 79 82 85 88 94 93 90 89 90 88 81 72 63 51 41 42 43 48 44 42 39 41 40 31 25 22 20 22 22 21 21 27
68 74 81 83 84 89 93 86 76 74 77 84 86 91 94 95 94 93 91 90 79 70 57 43 47 46 47 49 51 52 51 49 47 41 34 27 22 22 24 24 25 24 26
56 58 64 77 80 79 94 78 73 80 87 97 97 94 93 92 91 88 86 78 64 53 47 41 42 48 50 53 56 59 54 54 50 42 34 28 25 25 28 32 32 30 31
59 62 67 72 70 75 74 70 80 90 93 97 97 92 90 88 86 82 73 62 50 49 51 51 47 51 55 58 61 62 60 56 51 42 36 31 30 33 37 38 38 39 36
62 68 70 72 79 76 71 81 87 91 86 88 89 86 85 79 73 64 53 49 49 47 55 53 54 56 61 63 64 60 58 57 53 45 42 38 38 40 41 43 41 42 44
65 65 73 74 73 73 81 79 83 83 87 92 84 79 72 63 49 41 40 40 45 46 52 59 61 64 62 67 65 64 61 57 51 51 49 50 49 45 45 51 50 51 49
53 57 63 65 69 73 73 82 84 87 88 79 71 62 53 42 40 40 39 39 41 45 48 54 58 64 66 67 66 64 64 61 54 58 56 50 51 47 51 55 52 47 49
53 55 62 67 69 74 76 77 77 72 67 59 51 43 41 41 41 42 45 50 45 45 50 52 60 62 67 66 67 65 67 68 60 59 57 52 58 52 54 57 54 47 49
51 55 61 64 67 68 66 61 56 51 44 41 40 41 44 44 45 46 46 47 52 54 55 57 59 54 59 70 69 74 73 70 65 66 67 63 62 54 57 58 48 46 49
57 58 58 56 54 50 44 44 40 39 41 40 39 41 46 46 44 42 42 40 39 42 58 78 67 61 59 62 74 81 80 77 67 71 75 69 63 58 60 55 50 50 51
48 47 48 47 45 45 44 44 42 41 41 40 40 40 43 42 39 40 41 39 38 37 48 65 81 80 74 72 81 83 90 81 80 75 79 73 66 61 55 56 52 44 50

GFSMA_prec_cthk_048.txt.gz
RH
71 63 60 58 56 63 66 66 63 62 47 36 29 29 29 28 28 29 31 33 34 31 29 33 36 38 38 36 34 33 32 33 33 32 32 34 33 33 34 33 29 27 23
70 69 66 67 70 65 63 59 53 44 45 37 29 30 30 32 37 35 37 40 40 38 33 33 39 45 43 41 37 34 35 34 35 34 38 36 38 37 40 41 36 36 34
67 65 66 66 59 58 59 52 48 45 44 40 31 30 34 39 42 43 43 43 45 44 43 42 35 45 47 45 40 39 37 36 38 40 39 37 38 39 38 38 38 39 37
66 68 64 59 58 58 56 51 49 47 43 40 34 34 39 44 46 47 49 51 50 47 47 49 46 41 40 39 42 43 41 40 45 39 38 35 33 34 32 32 35 34 32
64 61 64 64 62 60 53 50 49 47 44 44 42 43 44 48 49 52 55 53 52 49 45 45 46 43 38 37 38 39 41 41 39 38 37 35 35 33 31 30 30 29 31
63 68 72 81 64 56 53 51 50 49 52 55 55 49 48 53 57 60 59 53 50 49 46 42 41 40 41 41 41 42 40 37 38 37 36 34 32 30 28 27 26 26 30
61 61 72 79 63 54 54 56 55 56 62 64 62 56 61 61 65 64 61 56 53 47 47 48 47 44 45 45 46 45 45 44 40 36 34 32 29 28 29 30 29 30 31
68 62 66 60 59 63 68 67 69 71 72 69 65 64 66 67 64 65 60 54 52 53 52 50 49 52 52 51 50 48 49 47 43 37 30 25 23 25 26 30 30 32 31
71 67 63 65 71 77 79 81 82 81 80 77 72 72 73 72 69 65 66 63 59 56 59 56 57 58 58 56 54 51 51 50 46 39 30 23 20 23 22 30 31 32 34
72 77 82 81 84 86 86 83 85 88 88 80 80 82 81 77 74 76 75 68 61 63 62 61 67 66 66 61 59 57 58 53 44 37 29 20 19 23 23 23 23 24 29
72 80 84 84 83 80 88 91 92 91 93 87 83 86 84 83 84 81 76 79 70 71 71 70 69 69 67 66 60 61 60 47 33 29 24 20 17 16 16 20 21 22 22
82 82 84 83 79 82 86 91 91 91 92 92 89 90 88 84 83 83 78 75 77 79 84 87 78 74 71 69 69 59 46 35 29 28 25 22 18 15 15 17 20 24 25
95 95 87 89 91 91 89 95 92 93 95 91 95 90 89 92 86 82 84 82 80 84 83 83 83 80 75 71 59 49 42 34 28 25 22 19 21 20 21 18 18 19 25
78 86 90 88 91 86 87 92 94 93 96 96 94 88 92 82 77 85 84 86 84 85 85 83 83 79 71 59 52 49 43 35 30 27 26 27 27 28 24 21 18 17 18
79 88 84 82 82 86 92 92 86 91 98 97 86 88 85 79 84 87 90 93 90 85 76 73 68 64 57 56 51 46 40 37 35 34 34 32 33 31 26 24 21 17 19
84 74 69 71 69 68 69 75 79 82 86 90 88 86 84 92 85 86 92 90 87 78 70 66 58 52 49 46 43 45 45 44 43 42 41 39 38 33 28 23 20 21 23
70 61 62 60 59 58 63 68 74 72 73 76 79 77 84 97 93 88 82 82 79 74 66 57 56 51 45 46 49 52 53 50 44 45 45 39 38 32 28 24 25 27 30
63 62 61 63 62 64 71 76 73 73 74 70 77 80 84 91 88 88 85 78 72 68 63 53 49 43 41 43 46 49 50 51 49 47 43 44 37 34 31 30 33 35 37
66 62 56 61 64 66 71 72 82 79 68 70 84 82 86 89 85 86 76 72 66 62 59 61 50 46 47 53 51 51 51 51 52 47 48 45 42 40 38 36 40 41 44
65 60 59 62 62 63 62 73 68 73 73 77 81 81 86 84 76 68 63 56 55 57 64 62 62 52 53 54 59 59 59 57 55 54 51 50 50 45 48 43 45 46 47
58 60 59 55 56 62 68 70 68 72 76 79 77 79 74 65 59 52 49 46 48 49 50 57 54 55 53 57 64 70 71 65 63 57 55 53 52 53 50 47 50 52 53
50 47 50 56 57 58 65 69 72 76 76 74 67 61 54 48 42 44 46 45 44 44 45 46 41 46 52 62 70 78 78 70 64 58 64 58 60 53 52 54 57 57 56
43 47 49 53 58 61 67 69 70 70 65 58 51 45 41 41 42 40 40 42 42 43 45 47 50 48 53 58 71 75 81 79 69 65 69 62 61 56 63 64 58 57 60
44 46 50 55 60 62 63 62 57 49 44 38 40 43 43 40 39 43 44 42 39 36 34 38 44 52 61 67 77 80 78 75 76 71 83 77 64 64 70 65 58 58 56
47 50 56 58 56 52 49 47 44 41 39 39 39 37 36 35 35 38 38 36 32 28 28 31 38 44 56 69 80 86 88 86 70 86 86 87 70 70 72 62 57 58 56
49 49 49 49 48 47 47 45 44 43 41 37 34 32 30 28 27 26 26 28 30 28 30 42 44 53 43 59 79 89 92 88 89 89 82 91 82 82 72 60 57 59 52

GFSMA_prec_cthk_051.txt.gz
RH
79 75 71 65 61 54 57 62 61 62 62 46 28 27 29 27 26 30 33 35 37 37 34 33 37 40 38 36 38 36 31 30 31 31 33 31 30 28 29 28 28 30 31
76 75 71 67 63 60 65 63 59 57 52 41 30 28 28 29 31 35 39 41 44 44 41 37 39 43 42 40 39 37 34 32 32 32 36 36 33 31 32 30 28 28 28
79 80 72 75 77 68 62 58 55 47 42 39 37 29 28 34 39 41 44 45 47 45 41 41 39 42 45 43 41 38 36 35 35 40 43 36 35 33 32 32 30 29 28
75 72 76 72 79 62 56 55 48 45 43 40 37 33 35 40 44 45 47 50 49 45 43 43 38 36 39 41 41 39 40 41 41 42 40 40 38 35 32 29 27 29 28
69 69 68 63 57 57 55 52 50 47 45 42 41 43 45 48 49 53 58 56 50 46 45 42 41 38 38 40 40 41 43 42 43 43 44 42 37 34 32 30 28 27 26
65 64 68 74 65 66 58 53 51 50 50 47 49 53 55 51 54 59 61 61 57 50 49 48 49 43 42 42 42 44 46 47 45 45 43 40 37 35 33 30 28 26 31
60 65 68 69 75 77 57 58 59 60 60 58 63 64 61 58 65 64 64 63 55 57 55 54 54 46 45 46 49 50 54 54 52 48 45 41 36 32 31 28 34 34 32
64 67 66 69 67 70 65 70 73 72 73 76 74 72 68 65 69 73 71 66 64 59 57 58 56 53 54 53 54 56 57 55 55 53 49 43 34 27 22 25 32 33 32
70 79 68 64 60 69 83 81 83 85 85 83 80 78 75 72 73 77 72 71 68 65 64 61 57 56 60 61 60 59 60 62 62 58 50 38 30 26 22 24 30 31 30
63 65 71 75 67 72 86 90 89 87 90 87 86 86 80 79 81 77 74 72 73 73 66 61 59 59 62 66 64 65 66 66 59 52 46 35 29 25 21 23 23 22 22
79 83 70 79 86 87 86 91 89 87 87 90 88 93 88 84 82 79 82 80 78 73 68 64 65 68 69 67 67 64 60 57 52 47 42 36 29 24 21 18 23 23 23
88 85 91 91 80 90 90 87 90 88 92 95 90 88 88 88 84 82 92 85 79 74 69 70 71 73 74 71 63 60 57 53 49 46 43 37 30 26 24 23 26 25 25
75 79 88 93 90 86 86 86 89 90 91 97 91 85 96 95 88 91 90 84 73 78 83 83 78 77 73 68 62 58 55 52 53 49 42 38 33 31 29 25 25 22 24
65 71 78 82 82 86 85 78 77 82 88 86 82 87 89 83 95 93 81 78 76 79 86 86 85 81 74 68 63 59 56 55 50 45 42 37 38 38 35 31 29 27 29
66 60 80 84 71 71 67 67 65 67 66 71 69 77 88 83 78 78 74 80 81 82 78 77 73 74 68 61 59 58 55 50 48 44 41 42 45 41 36 33 34 29 25
70 64 77 74 63 65 64 64 66 65 76 70 83 73 72 71 71 76 84 84 86 82 74 71 65 61 57 58 55 52 47 46 43 43 45 46 46 42 38 37 32 30 27
78 72 76 68 67 65 61 61 65 74 78 68 85 75 81 76 78 84 86 84 86 86 73 60 56 54 54 51 48 46 47 51 51 50 48 49 48 48 43 40 38 35 31
82 76 68 66 68 63 61 64 72 64 66 79 90 87 79 79 79 82 81 81 79 72 63 52 53 54 54 54 55 53 49 50 51 51 53 56 54 52 48 43 42 41 38
68 68 68 66 62 60 62 63 65 69 61 74 76 73 76 79 81 78 77 68 60 60 59 58 49 51 53 60 59 66 59 56 62 59 59 61 57 56 50 47 46 45 42
71 67 67 62 59 62 61 57 60 66 66 75 75 76 81 81 75 66 51 48 49 49 50 50 51 48 52 52 58 55 62 64 63 65 63 62 61 62 58 55 53 52 48
69 64 59 59 58 55 54 59 64 66 72 71 75 79 76 67 50 44 44 45 48 48 47 46 46 45 41 40 44 49 56 72 75 77 76 74 75 69 59 59 57 56 53
62 60 56 49 50 54 57 62 63 66 71 75 73 67 54 47 40 40 41 44 47 46 46 46 44 46 41 40 41 52 75 86 87 88 91 84 85 75 62 68 59 56 59
50 46 45 48 50 53 56 60 63 68 67 63 51 48 43 42 43 40 37 36 38 40 41 41 39 37 38 37 44 53 64 76 79 86 90 76 76 76 73 73 64 67 65
41 40 42 45 47 50 54 59 62 57 50 47 42 40 44 43 41 37 34 33 33 32 31 33 36 34 33 30 38 46 52 68 78 91 98 89 81 75 84 78 74 71 68
37 40 43 47 51 54 56 54 50 48 45 42 45 46 42 37 34 31 29 26 24 21 18 16 13 13 18 31 35 52 50 67 69 81 98 96 85 79 86 80 82 75 69
42 46 49 50 49 47 48 49 50 49 49 49 45 39 35 34 33 32 30 27 22 20 18 13 9 7 7 8 11 34 76 77 75 80 88 99 84 86 81 79 80 73 65

GFSMA_prec_cthk_054.txt.gz
RH
65 67 72 70 70 69 62 53 51 55 58 53 38 29 27 26 26 30 34 36 37 37 36 34 38 43 40 37 34 32 31 28 28 27 29 28 28 29 30 29 29 28 28
68 71 70 66 69 63 58 59 58 59 57 56 37 29 27 27 30 35 35 37 40 41 40 37 38 40 38 40 37 34 34 31 31 30 33 34 32 32 34 34 32 31 30
73 75 68 66 64 61 64 65 60 56 55 52 39 33 27 28 34 39 41 43 45 47 44 40 37 35 41 45 43 37 35 33 35 35 37 37 36 37 35 33 31 32 31
75 72 72 77 79 78 67 60 56 53 48 42 41 38 35 36 40 45 47 49 52 50 46 42 40 38 38 42 41 39 38 39 42 46 42 44 44 41 39 36 34 32 31
75 78 74 75 77 79 61 55 53 51 45 43 43 44 47 49 48 51 52 57 57 56 50 49 47 42 41 42 42 41 47 45 46 47 48 46 43 42 39 35 33 31 29
80 68 68 70 73 62 61 56 52 50 52 52 52 53 54 60 60 58 58 62 64 64 57 54 53 49 47 43 41 43 46 51 51 51 49 46 45 42 40 36 32 30 29
65 64 68 70 79 80 74 63 55 58 61 66 65 63 65 66 66 63 65 66 67 65 60 55 53 53 50 49 48 48 50 55 56 54 53 52 51 49 44 36 27 24 27
61 62 63 67 73 74 75 67 60 64 71 76 75 74 75 72 70 70 70 72 72 66 61 60 57 56 60 55 51 54 56 57 59 59 58 55 51 45 36 30 25 28 34
59 59 64 63 66 66 63 71 76 75 81 85 84 84 79 78 80 80 78 77 72 70 66 67 65 59 57 56 58 58 59 59 61 61 55 50 45 40 34 30 27 29 27
43 49 60 73 79 73 62 69 79 86 91 89 86 81 84 85 82 82 77 77 71 72 72 72 71 69 63 63 65 64 60 59 58 57 52 48 44 41 37 30 25 22 26
57 69 75 75 77 84 87 86 87 88 91 92 89 86 92 90 87 80 77 81 75 77 81 80 75 67 68 68 66 64 59 56 55 53 51 49 47 43 38 33 29 26 28
69 72 80 84 86 86 88 93 97 92 94 91 91 93 91 92 88 80 85 80 74 80 79 71 65 71 73 67 66 65 59 56 54 54 55 50 46 42 41 38 37 34 34
71 66 71 88 90 87 87 91 90 90 86 85 90 86 91 75 71 73 75 76 78 82 71 73 71 75 73 69 68 63 58 55 56 57 56 54 47 46 46 45 42 36 33
74 68 69 71 82 78 81 78 81 78 70 65 69 69 72 68 71 66 74 73 68 62 66 76 78 76 73 70 63 57 55 55 56 55 54 52 51 55 50 49 47 41 37
57 72 70 68 75 78 67 66 69 68 67 65 65 64 72 69 75 71 70 71 69 64 67 75 75 74 74 67 59 54 51 51 53 52 52 51 50 50 51 51 50 45 37
81 75 75 74 78 76 64 66 66 61 58 61 64 64 87 65 81 86 83 79 74 73 69 69 67 67 62 58 53 50 49 48 47 46 44 45 47 50 51 51 55 52 46
91 91 87 80 78 71 66 65 62 57 60 65 66 61 66 71 88 93 84 79 73 77 71 64 62 55 51 49 50 54 53 50 49 51 51 50 48 51 52 55 62 59 54
81 93 88 86 76 69 70 63 61 59 64 60 62 61 64 68 86 84 73 72 73 72 65 56 48 44 44 46 47 53 57 57 57 57 64 64 66 64 67 59 66 63 58
68 78 77 74 73 69 63 60 58 60 67 59 65 63 63 71 77 76 75 73 69 58 47 45 42 43 44 47 44 46 46 50 47 59 55 63 76 85 74 73 78 70 65
68 71 69 69 70 62 57 60 60 60 61 60 59 71 67 79 77 75 74 62 48 43 41 43 42 41 43 42 45 44 42 43 41 42 47 56 66 72 83 80 88 82 70
68 69 71 70 60 58 59 59 59 58 55 59 66 69 76 76 76 70 56 45 42 42 41 41 42 42 40 40 41 40 42 42 36 38 49 64 83 77 87 92 96 93 75
73 73 67 62 59 59 53 52 51 54 58 65 68 70 75 75 61 48 43 45 46 44 44 46 48 47 43 45 43 42 43 42 38 25 39 51 68 76 88 99 96 91 80
72 67 66 62 56 48 47 50 55 57 60 64 69 71 63 52 51 47 47 46 45 46 48 46 44 43 39 37 38 35 37 38 38 30 44 49 57 76 95 97 95 94 84
69 64 55 48 45 48 51 54 55 60 64 65 61 54 55 54 50 48 44 44 42 40 38 36 33 29 25 21 17 16 17 16 30 31 51 59 63 79 94 98 97 90 91
52 50 46 43 44 46 48 52 56 62 59 53 53 54 54 54 51 49 45 42 42 40 38 37 35 33 30 25 26 22 15 20 20 22 57 77 70 73 89 94 94 94 91
49 42 39 42 45 48 53 56 56 53 55 55 56 59 58 53 48 46 45 44 42 42 40 39 36 32 28 26 27 33 35 33 31 33 42 68 83 82 86 87 86 87 83

GFSMA_prec_cthk_057.txt.gz
RH
68 72 70 68 70 69 64 64 63 59 54 46 33 30 31 29 25 28 30 33 36 36 37 39 40 39 35 34 33 31 31 28 26 25 25 28 27 27 30 30 28 31 30
72 72 72 72 74 70 67 64 58 52 54 52 42 33 30 27 27 29 33 38 41 41 39 42 41 41 39 38 36 35 33 31 29 29 31 32 31 32 32 32 31 31 32
71 74 72 74 72 69 65 64 57 52 54 56 52 36 29 26 28 33 38 43 47 47 44 40 40 40 44 45 42 40 37 35 34 33 35 36 36 36 36 35 31 29 28
71 76 76 76 68 65 63 66 64 57 56 55 52 42 34 33 34 36 43 49 54 52 50 47 46 46 45 44 43 44 45 44 41 40 40 42 40 38 38 37 35 33 31
77 82 80 74 65 70 75 66 61 56 55 53 52 44 42 44 45 45 47 55 60 59 58 59 57 53 47 42 42 44 46 48 48 45 45 46 42 41 39 37 36 34 35
81 81 78 72 75 84 84 64 54 54 54 56 52 51 51 54 56 56 56 59 63 66 65 64 61 56 52 49 50 48 51 54 50 50 47 44 42 41 40 38 35 33 30
80 80 76 73 74 73 68 63 56 55 57 60 62 63 63 66 66 66 66 65 66 72 73 70 67 59 58 57 56 56 54 55 54 53 49 46 44 42 40 36 32 29 26
81 80 73 69 71 77 75 76 69 60 62 66 68 70 71 71 75 77 76 76 75 78 76 71 66 63 62 61 60 61 59 55 56 56 53 49 46 44 39 35 33 29 24
72 69 67 66 67 71 75 77 73 69 71 73 75 79 82 84 76 74 82 76 80 73 70 68 71 65 63 65 63 55 57 59 59 57 55 54 49 45 42 38 35 31 27
65 66 66 64 63 65 68 68 65 70 76 83 88 90 91 84 90 77 84 86 79 71 76 74 75 65 64 61 62 60 60 61 61 58 54 51 48 46 44 41 38 35 31
52 54 56 55 60 70 85 82 80 79 80 84 91 95 96 90 87 86 87 82 75 70 66 66 70 67 63 60 60 63 64 60 58 56 52 51 50 49 48 46 42 40 38
56 59 59 64 72 82 85 85 90 90 95 96 97 97 93 89 90 86 84 70 63 64 69 68 69 62 59 62 61 63 62 61 61 57 54 54 56 58 55 49 47 44 43
59 59 56 61 81 87 92 94 91 89 90 89 87 86 80 68 75 70 70 66 66 61 63 69 67 65 63 64 66 65 63 61 58 57 56 59 60 59 56 56 53 46 42
66 64 72 74 68 85 85 83 81 79 77 78 72 68 68 73 68 63 67 65 61 66 68 76 76 72 67 68 65 63 61 58 57 56 56 58 58 58 60 56 49 46 43
77 70 78 75 72 75 88 80 73 71 74 67 66 69 61 60 66 61 70 76 67 70 73 80 73 68 71 66 63 60 57 54 53 52 52 52 53 54 51 49 50 48 45
85 86 76 78 83 83 83 85 76 70 67 66 62 59 61 64 59 68 76 69 66 75 77 83 68 69 69 64 58 52 50 49 50 52 55 55 54 55 56 52 58 59 56
82 92 92 87 86 88 89 88 81 72 69 66 60 63 65 59 68 61 60 62 66 77 81 72 68 67 60 50 47 46 46 47 46 50 54 57 56 57 54 67 76 64 79
79 87 92 87 85 89 89 89 80 76 70 66 62 63 58 62 69 67 62 62 69 74 72 68 66 53 43 43 44 44 44 46 48 49 52 51 51 49 49 69 64 73 78
70 70 78 79 88 89 83 85 78 72 65 62 65 61 69 67 59 60 63 66 77 78 74 67 51 45 47 47 43 43 43 42 43 42 40 38 39 40 42 37 59 69 76
72 64 67 78 81 80 81 79 75 68 66 65 61 58 66 63 61 62 70 72 75 72 61 48 46 46 45 44 45 45 42 42 40 39 36 35 37 34 31 36 49 66 96
68 70 71 77 80 77 73 71 68 62 62 57 61 59 61 61 61 71 75 74 74 58 48 48 48 46 46 45 46 47 45 40 36 35 29 26 27 25 24 32 43 55 88
70 73 72 74 75 74 70 68 64 61 56 58 56 60 60 62 73 78 74 78 58 50 52 50 48 47 48 48 44 39 35 33 28 27 30 26 28 35 28 33 42 57 75
75 74 74 77 78 78 76 70 63 55 54 57 56 60 63 72 79 79 72 58 55 56 52 49 46 46 45 44 41 40 38 36 32 27 25 17 13 14 23 44 50 63 89
70 79 85 83 86 79 70 60 53 52 54 57 61 65 71 79 81 64 58 56 56 52 45 43 45 46 46 47 48 47 44 41 35 30 30 28 18 18 26 59 61 69 88
80 87 83 82 68 61 55 49 50 54 58 62 68 74 79 72 64 59 58 55 50 49 52 52 51 49 49 49 51 52 49 50 40 29 26 30 25 33 52 62 71 78 84
80 81 75 64 60 56 50 51 55 59 62 66 69 66 60 63 64 63 55 50 50 55 54 51 50 52 51 49 49 49 51 50 49 38 27 36 42 57 53 52 81 82 88

GFSMA_prec_cthk_060.txt.gz
RH
68 64 65 64 63 64 67 66 65 62 56 51 39 36 30 27 27 27 27 29 34 35 37 39 39 37 36 35 35 34 32 28 26 25 26 26 27 28 27 26 27 27 30
68 70 73 75 71 71 70 67 64 61 63 63 51 35 30 30 29 30 29 34 41 43 43 43 43 41 40 42 41 37 33 32 30 30 32 32 32 32 31 30 29 28 27
78 74 71 78 76 74 73 72 70 67 64 60 56 38 30 30 30 30 34 39 43 48 48 48 47 46 46 47 46 42 36 36 36 36 38 37 34 34 32 32 31 30 28
81 76 77 76 78 74 71 71 70 64 59 56 55 51 45 39 34 35 37 40 47 52 54 54 53 50 51 51 48 46 46 43 43 43 43 39 36 37 34 32 31 31 30
81 80 77 75 77 73 68 67 69 64 59 60 61 59 55 48 44 44 45 45 50 54 59 61 59 58 56 55 52 50 49 51 52 50 47 42 41 38 36 33 31 30 27
80 80 80 78 79 73 70 72 70 70 62 64 64 62 60 56 51 55 56 55 57 60 62 67 68 66 65 63 56 51 52 54 53 48 47 46 43 41 39 36 34 29 26
82 83 83 79 78 76 78 78 75 70 64 63 62 64 68 64 63 65 66 68 69 72 73 73 75 73 68 64 66 59 57 56 56 52 51 47 44 43 42 40 37 33 31
86 85 82 82 83 82 82 77 74 67 65 59 65 67 68 67 71 69 73 73 76 79 76 78 77 72 68 70 72 64 65 57 53 56 54 49 48 46 44 41 38 35 34
93 89 86 89 84 79 74 70 69 68 66 58 61 68 70 71 72 77 78 86 82 81 81 83 80 72 66 66 65 62 54 55 59 59 55 53 52 49 45 41 39 37 37
93 81 86 82 74 70 70 74 73 74 74 71 72 74 82 81 83 90 88 85 82 86 84 80 75 69 67 69 64 57 58 59 62 62 60 56 54 49 45 42 40 40 40
81 77 76 73 69 67 70 67 67 71 74 75 78 83 87 89 94 92 89 84 90 84 79 71 65 66 64 65 62 63 63 62 62 62 61 59 57 57 52 48 50 48 45
65 65 67 65 65 65 64 61 70 86 91 91 90 92 93 95 92 91 88 75 84 72 65 68 68 63 62 71 71 70 68 66 65 62 62 61 60 59 58 65 67 67 58
56 60 65 69 69 69 67 68 86 90 95 97 97 91 86 90 92 84 72 93 66 73 64 68 71 66 70 76 77 72 68 67 65 62 59 57 56 56 60 67 68 70 63
63 66 66 64 59 57 58 78 88 95 91 90 84 85 83 86 72 70 73 75 62 65 63 71 75 70 76 79 79 77 67 65 61 56 54 54 55 56 58 59 64 67 68
60 61 63 59 62 67 64 75 89 91 88 79 76 76 80 70 64 66 58 62 67 55 60 65 64 68 74 82 81 71 64 60 55 54 55 54 54 55 58 61 60 57 58
64 64 68 74 75 80 84 80 79 88 90 82 82 78 69 67 63 62 62 62 55 62 59 57 62 64 74 78 70 64 55 52 51 51 50 52 53 56 60 59 59 59 60
73 81 86 90 92 90 90 92 94 92 90 90 84 81 76 71 62 64 57 57 57 63 59 59 62 72 75 74 62 45 44 45 45 46 49 51 51 52 50 53 54 55 55
78 80 83 86 95 92 87 89 88 92 94 92 92 84 78 70 61 60 56 61 63 56 59 63 69 73 76 62 48 44 44 44 46 46 47 46 46 45 45 42 41 42 45
75 84 89 84 83 89 90 89 90 98 95 89 82 76 73 64 62 62 57 68 67 64 65 69 73 75 61 51 46 45 44 43 43 42 43 43 41 38 35 33 32 33 34
72 84 75 73 73 73 87 88 86 87 86 82 76 74 69 66 63 57 62 63 65 67 70 77 74 61 54 49 46 43 42 42 45 46 45 43 39 34 29 27 26 26 26
69 74 88 81 72 75 76 83 85 86 75 73 70 69 69 67 59 63 71 62 72 70 79 81 68 60 52 48 46 45 44 45 44 48 46 45 41 36 32 24 21 27 30
75 73 76 80 76 76 77 78 81 75 74 74 72 71 64 62 61 69 65 67 72 80 84 74 63 55 51 48 48 49 51 47 48 50 45 43 42 37 31 25 18 21 26
75 77 79 76 78 80 78 84 85 86 85 80 74 66 63 63 64 65 66 72 79 85 79 66 58 52 48 49 55 55 53 53 50 50 49 41 43 38 33 25 21 18 30
73 79 76 78 80 80 84 88 88 86 77 75 69 62 59 60 61 66 72 78 84 79 67 59 52 51 51 61 57 53 56 51 50 53 55 48 46 40 31 26 28 37 41
71 77 75 76 80 86 93 95 96 82 76 72 62 59 60 62 66 72 78 82 77 66 59 54 54 52 63 58 56 55 57 55 51 53 58 56 47 44 31 24 29 41 53
66 71 75 75 80 85 89 92 76 69 70 68 64 62 64 67 72 78 78 68 65 58 55 54 54 62 61 59 61 66 65 63 64 54 60 55 50 47 40 27 32 45 52

GFSMA_prec_cthk_063.txt.gz
RH
60 66 65 68 61 63 61 62 66 61 58 55 46 42 39 32 30 28 29 31 33 35 38 39 40 39 38 37 36 36 34 30 27 28 28 26 26 26 25 26 27 26 25
66 65 69 64 62 66 66 67 67 66 65 59 55 45 35 33 33 29 29 32 35 38 40 45 46 45 44 41 41 43 39 35 34 34 37 35 32 30 29 29 29 27 26
72 76 69 68 69 71 76 76 71 68 65 65 57 47 37 36 28 28 30 33 39 41 41 44 47 52 52 51 51 47 45 40 40 40 41 40 36 33 33 34 32 29 26
81 77 73 74 75 77 79 78 79 73 62 62 62 58 52 37 29 30 34 40 40 43 45 49 52 57 59 59 57 56 54 49 48 46 44 41 36 35 36 36 34 32 28
83 80 82 81 82 81 79 78 80 77 70 64 60 60 58 44 41 43 47 46 44 47 49 52 55 59 62 65 64 64 64 56 55 53 51 47 40 40 38 38 36 34 32
86 86 86 85 83 80 77 75 75 75 73 68 62 60 59 56 59 60 58 54 54 56 60 61 63 67 69 69 66 62 62 63 62 62 54 47 45 44 42 41 39 37 34
89 89 86 85 82 82 79 77 82 82 73 68 65 67 70 76 74 71 69 64 63 65 65 66 74 73 76 78 73 63 63 64 57 57 50 50 48 48 45 43 42 40 37
89 88 86 83 85 84 81 83 82 81 73 68 69 67 67 68 73 73 70 69 71 72 73 78 79 80 81 84 75 60 58 57 57 50 52 54 51 50 47 45 44 42 39
90 88 85 86 90 86 85 83 82 82 74 72 70 62 61 61 67 68 70 73 78 79 79 82 87 85 84 79 67 60 60 59 52 54 56 55 54 52 48 47 45 42 41
87 89 87 86 92 89 86 87 84 77 70 70 72 67 62 58 64 70 73 78 88 92 87 89 89 78 75 64 61 65 63 61 64 65 63 60 62 60 57 53 51 49 49
91 90 88 90 91 84 86 80 74 74 75 76 75 78 78 74 76 85 88 90 92 97 89 84 80 76 62 65 63 60 62 65 71 67 68 66 62 63 62 58 58 60 59
87 84 83 86 84 84 82 77 73 71 71 69 76 92 92 91 92 89 95 95 96 97 85 88 84 68 67 67 66 67 63 68 70 72 71 67 67 63 63 63 65 65 68
79 77 77 76 75 75 74 72 69 67 65 69 87 95 94 99 96 91 92 94 83 73 73 86 65 65 61 67 65 62 62 71 76 77 71 64 60 56 56 56 58 61 63
66 65 66 68 66 66 67 68 68 69 69 75 91 95 94 93 96 92 89 84 70 70 63 69 65 68 64 62 60 67 62 75 74 70 64 57 55 54 52 51 52 54 57
61 62 62 61 64 67 66 64 63 66 70 78 89 94 88 80 84 86 85 78 65 64 61 69 67 62 68 69 66 63 69 76 72 67 57 52 51 48 47 49 50 51 54
64 63 64 64 66 67 62 60 61 65 70 79 90 92 91 83 83 86 77 71 65 66 65 62 61 66 63 63 63 69 73 74 64 53 47 47 46 45 46 47 48 52 55
58 58 60 61 62 61 63 67 76 91 94 92 93 95 96 94 91 87 85 76 67 63 63 61 65 65 69 67 70 75 74 61 50 46 45 44 44 45 45 46 46 48 46
64 66 70 71 70 75 83 92 92 92 95 95 97 95 95 97 91 90 80 76 70 61 60 65 66 68 64 64 71 71 58 51 46 44 43 46 46 45 47 46 45 43 39
62 64 68 66 77 81 89 92 94 93 98 95 96 90 93 94 92 82 81 76 71 66 58 63 62 68 72 71 64 59 55 48 45 46 46 47 48 51 53 51 47 44 40
70 73 73 69 66 76 78 83 84 92 95 95 94 92 90 87 79 79 74 72 65 71 60 70 68 64 69 67 62 60 52 45 48 48 49 53 57 58 57 53 49 43 39
65 76 83 83 72 74 77 82 80 80 81 85 88 87 83 78 74 75 72 68 70 66 62 68 73 66 70 63 61 56 48 48 48 51 58 60 61 59 56 51 47 43 37
57 67 73 84 84 81 85 82 86 87 84 87 86 85 82 83 84 81 74 75 66 72 64 67 69 71 69 65 61 52 48 48 55 61 59 60 61 57 54 50 46 41 35
47 55 66 81 82 86 86 87 82 82 82 78 83 86 85 88 84 76 78 68 65 66 66 70 73 70 67 65 56 51 51 57 61 62 61 59 62 57 54 50 47 42 37
51 55 62 71 77 79 86 86 86 88 86 85 90 92 96 93 79 84 76 75 67 66 70 74 71 68 65 57 54 53 61 66 65 64 69 63 66 57 56 56 48 41 36
57 57 60 66 71 77 83 83 83 86 90 94 96 96 95 86 78 80 78 76 73 75 77 75 70 63 56 59 61 65 70 70 65 73 73 71 65 63 58 54 50 37 34
54 55 55 59 62 66 70 74 80 84 88 92 95 99 94 79 81 81 81 82 83 83 79 70 64 60 62 68 68 77 74 68 76 76 78 69 66 66 56 53 47 40 35

GFSMA_prec_cthk_066.txt.gz
RH
57 58 62 70 71 72 68 60 55 55 57 54 48 44 45 42 39 45 36 31 32 37 39 42 40 38 35 33 32 32 33 32 31 29 28 29 29 28 26 25 25 26 26
62 64 66 71 70 72 68 65 66 64 64 61 56 52 46 44 44 41 36 31 33 37 42 45 46 49 49 45 40 40 40 40 37 36 34 35 33 29 26 27 28 28 29
65 70 73 72 70 68 67 71 70 68 67 66 61 56 50 46 42 35 36 41 34 37 42 53 47 50 55 53 51 51 48 46 46 45 43 42 36 32 30 29 30 31 32
70 77 75 76 71 67 72 74 75 74 71 68 61 55 53 43 36 32 39 36 39 46 42 48 48 52 54 57 57 58 57 54 53 52 51 50 43 37 33 33 34 34 33
79 81 77 74 71 74 78 80 79 78 74 68 65 61 59 56 43 43 36 41 43 44 56 53 53 52 54 58 60 65 66 62 56 55 57 54 47 37 36 37 37 38 36
86 84 79 77 76 81 84 81 79 80 81 75 67 63 63 61 59 51 48 48 49 59 64 60 58 56 57 60 66 69 68 66 60 54 53 47 40 38 39 40 41 40 37
85 84 81 80 82 86 85 81 77 77 81 85 75 67 65 66 66 65 64 69 75 71 65 63 62 66 68 70 71 71 73 69 60 50 48 46 45 44 43 44 44 43 41
86 88 87 88 87 86 82 81 81 79 85 80 79 75 73 69 70 79 81 84 77 74 71 67 67 70 72 82 79 75 73 58 53 54 57 55 55 54 53 51 48 46 44
86 90 90 91 88 86 84 83 83 82 85 82 80 78 76 74 76 70 68 73 75 74 73 79 77 82 82 87 80 66 60 59 56 58 53 54 56 58 58 57 54 52 49
90 92 91 90 87 87 87 85 85 82 84 90 82 74 72 72 64 64 64 63 66 72 78 87 90 93 90 84 78 69 61 59 60 54 53 55 59 63 67 64 58 56 55
94 93 92 90 88 89 89 88 86 83 79 85 86 84 73 77 80 78 75 80 82 87 93 97 95 89 85 82 82 65 56 62 59 56 55 60 62 66 68 64 62 60 61
94 92 93 91 89 90 87 85 90 92 82 80 82 77 77 75 80 94 94 95 91 88 94 94 88 81 76 66 62 56 56 60 57 57 59 58 68 68 66 63 62 63 62
92 91 92 91 88 88 89 87 92 86 78 75 79 76 67 68 80 93 97 97 96 94 93 86 80 72 65 60 56 57 57 59 62 58 64 64 71 70 65 59 58 57 58
77 83 84 85 84 84 83 83 87 83 75 76 70 66 68 73 82 94 90 94 97 94 82 78 68 64 60 60 56 56 59 62 58 60 60 67 69 66 58 52 53 52 50
70 74 77 75 74 73 73 74 78 77 72 76 71 69 71 75 83 90 90 87 90 85 76 75 67 65 65 61 56 56 62 60 56 58 64 63 61 58 50 48 44 43 46
60 63 66 66 68 70 70 72 72 70 70 71 68 68 72 77 83 88 95 92 88 88 87 85 78 70 63 60 58 58 58 57 55 62 63 54 50 46 43 43 43 45 45
60 57 63 66 67 68 70 71 70 71 68 64 64 64 78 90 94 95 97 94 97 92 95 88 81 73 67 58 59 59 57 60 63 60 55 48 46 43 44 44 45 47 49
66 65 65 64 62 65 68 68 69 70 69 71 75 83 91 94 96 95 95 94 93 97 95 83 78 80 69 64 58 64 61 61 62 54 50 45 43 45 46 47 52 55 56
68 73 76 68 69 71 71 74 76 79 80 84 94 94 92 98 97 98 95 89 96 95 86 83 77 77 67 72 60 68 67 62 58 52 48 43 45 48 50 55 58 61 58
55 58 64 67 67 71 71 70 69 72 77 82 89 93 97 96 96 94 92 90 89 83 83 84 77 71 72 67 71 64 64 60 57 51 48 49 50 52 57 63 67 63 61
43 50 53 57 64 69 75 78 72 71 75 77 82 81 83 87 88 94 87 85 84 88 88 84 77 73 78 68 65 65 61 58 56 55 53 53 56 61 66 68 69 68 62
42 48 49 51 58 67 73 78 84 89 89 92 87 86 86 90 99 88 87 86 90 89 92 85 82 81 75 69 66 61 58 57 57 60 58 60 63 72 73 74 73 67 60
37 40 47 54 55 58 64 74 89 92 94 93 94 91 90 87 90 87 85 91 96 97 93 90 83 77 81 71 68 65 63 64 65 64 65 70 77 79 78 78 72 65 59
39 37 43 51 60 65 65 72 85 92 90 91 92 89 90 93 90 93 93 94 97 99 91 87 85 82 79 75 70 68 68 65 60 71 81 78 81 78 79 78 74 67 60
50 46 46 51 59 63 65 68 76 79 84 88 87 87 91 90 92 93 97 99 99 98 94 88 86 83 80 76 74 69 66 72 84 82 79 81 84 81 77 74 72 69 64
54 55 52 51 54 58 60 61 65 72 78 79 85 87 88 90 90 90 96 98 97 97 91 84 84 83 75 79 75 67 73 82 88 84 87 85 87 88 74 75 74 73 69

GFSMA_prec_cthk_069.txt.gz
RH
93 72 68 61 58 61 61 59 65 59 55 53 54 53 54 55 50 43 36 34 42 35 34 34 31 32 33 33 32 31 29 29 29 29 30 29 30 30 27 25 23 22 22
87 78 76 71 65 68 68 67 68 59 57 59 57 56 54 52 52 51 40 38 39 38 39 39 41 42 43 44 43 41 40 40 39 39 39 40 38 37 33 30 26 25 25
87 82 86 75 68 75 73 75 65 64 65 66 65 62 59 55 51 52 43 42 35 35 37 41 44 51 56 50 51 51 52 51 50 49 50 48 44 43 40 34 30 27 28
76 74 76 76 76 79 77 77 72 70 70 69 67 65 61 59 52 50 55 50 41 37 37 42 49 56 50 55 54 54 56 58 60 57 54 53 50 47 42 31 29 31 32
72 69 75 80 77 76 80 81 77 76 76 74 65 62 59 57 53 46 43 41 40 48 44 44 54 59 63 59 56 56 62 66 67 63 60 57 52 45 36 33 33 34 34
78 76 81 82 77 75 79 82 82 83 82 78 72 66 61 60 59 55 48 43 48 42 50 56 54 63 55 55 58 62 66 72 74 73 66 58 52 46 40 40 40 38 38
82 80 84 81 78 80 83 87 85 86 84 83 76 71 67 63 61 59 60 55 54 62 60 59 68 71 59 59 59 63 68 69 72 74 64 52 48 50 47 44 44 42 45
79 79 80 79 82 83 89 87 85 82 84 84 84 83 78 71 65 65 69 69 70 68 70 77 73 70 68 64 63 71 70 70 69 58 56 54 55 52 48 48 48 48 51
84 85 83 83 81 83 89 87 84 81 81 82 82 85 86 82 81 75 71 70 73 75 76 71 68 66 66 70 72 79 83 74 66 59 54 54 52 52 50 50 52 55 58
80 81 85 85 86 88 89 86 84 82 86 92 87 79 78 82 91 86 79 67 61 59 60 62 66 71 81 88 83 84 80 74 71 64 52 52 48 46 47 52 56 59 63
83 85 87 88 87 87 88 86 86 83 84 90 90 90 81 77 71 70 71 70 69 71 73 78 78 81 84 89 87 79 70 59 54 53 50 49 50 49 50 52 57 62 64
85 87 86 89 90 92 88 90 92 90 92 89 91 90 87 88 88 82 80 79 83 91 92 94 91 83 85 79 80 66 57 56 54 52 52 52 52 52 53 57 58 60 63
84 85 89 89 93 91 94 89 90 89 91 85 90 90 87 85 84 82 79 78 77 82 91 93 91 91 83 70 63 60 53 52 55 53 54 53 53 53 55 56 61 60 60
76 81 87 91 92 93 90 92 85 87 80 79 83 92 86 80 81 81 74 75 75 82 91 85 87 87 79 70 65 63 60 59 58 53 53 55 53 50 55 58 58 57 53
68 70 74 77 86 87 85 85 83 79 78 78 82 90 85 79 76 80 76 79 81 88 92 87 86 82 77 80 74 73 67 56 55 53 53 53 53 55 55 55 51 47 44
56 61 67 70 73 73 74 74 72 73 76 79 77 79 81 79 80 77 72 75 87 90 93 98 91 90 87 85 82 78 67 57 56 52 50 50 51 52 51 44 42 40 36
49 54 56 58 62 66 67 68 66 69 72 73 74 75 77 74 69 69 75 81 89 96 99 98 98 97 95 97 81 73 73 68 60 59 55 56 56 51 44 42 37 35 37
62 64 66 63 57 59 62 62 65 65 67 70 70 74 72 73 73 77 84 85 99 98 94 94 96 96 95 92 80 75 82 70 70 61 60 54 53 43 42 39 37 39 45
58 63 68 67 68 71 70 68 67 68 69 70 72 76 76 77 82 86 96 96 96 99 97 93 90 86 94 95 84 90 81 78 71 65 58 55 49 44 42 40 43 48 49
46 50 52 59 64 66 70 68 70 72 73 71 71 71 71 74 77 77 91 95 97 98 97 95 89 96 91 85 95 91 85 84 78 71 63 57 50 48 47 51 52 53 58
45 45 46 46 49 52 55 62 63 66 72 77 83 82 75 74 76 79 83 86 90 94 98 98 91 92 88 97 96 97 91 84 77 76 73 61 58 60 59 58 60 65 68
43 43 42 45 46 47 49 51 55 62 69 75 80 80 85 88 87 92 91 94 94 98 97 92 93 87 95 95 98 97 96 89 83 79 69 71 70 65 62 62 71 76 76
45 42 40 38 36 41 44 47 51 56 60 65 71 83 92 94 95 96 98 97 93 90 96 98 91 91 96 99 99 98 98 93 86 78 76 69 64 63 73 79 78 80 79
48 49 50 49 46 40 41 44 51 61 74 75 77 78 86 92 95 94 96 93 91 88 93 87 86 94 98 98 98 97 95 91 85 76 75 71 78 80 81 81 82 82 80
53 50 54 56 56 56 54 51 57 64 71 73 74 75 79 84 86 89 89 89 89 98 86 98 94 93 96 97 97 95 83 73 83 83 81 84 85 82 84 84 83 83 83
57 60 62 62 63 66 71 71 67 62 65 68 69 69 71 75 79 84 86 85 85 84 87 88 92 98 98 94 85 82 89 84 81 84 90 90 91 91 82 84 85 85 84

GFSMA_prec_cthk_072.txt.gz
RH
84 97 68 55 49 47 53 49 51 51 46 52 51 51 61 57 45 38 39 38 35 33 37 34 28 28 29 29 30 31 30 30 29 29 29 31 32 34 34 32 30 28 25
88 95 80 66 60 63 58 58 60 56 53 52 51 54 64 63 49 42 39 38 38 36 39 34 31 31 36 36 40 39 37 37 37 36 35 36 38 39 38 38 36 30 25
89 93 82 74 70 66 61 63 65 59 58 54 54 60 60 61 53 47 42 39 38 37 42 36 34 36 40 45 49 47 47 46 43 43 44 45 45 44 43 41 38 28 26
92 92 86 79 77 74 65 70 70 62 61 61 60 62 63 61 61 51 46 41 38 40 41 37 37 40 45 49 51 48 52 49 52 51 50 52 53 51 47 40 34 28 29
94 92 84 89 82 83 71 74 70 63 67 68 67 63 63 63 59 57 52 46 47 44 42 37 39 46 50 55 59 58 51 51 53 57 57 56 57 52 44 41 36 35 37
95 87 94 91 95 97 82 78 70 71 71 74 74 68 63 61 57 55 54 51 46 44 42 43 50 47 53 55 63 61 55 54 56 57 59 60 64 56 45 43 42 39 39
91 90 91 88 85 83 79 81 79 79 82 82 81 74 66 62 59 59 58 54 47 44 49 53 54 59 59 58 62 60 58 59 62 69 74 65 56 54 51 47 44 44 42
87 88 80 79 82 80 77 82 82 83 87 86 82 78 75 72 64 59 60 60 58 60 62 61 60 63 64 68 67 59 56 65 70 76 75 69 63 54 52 49 48 45 44
87 84 80 82 82 79 74 80 81 84 86 85 85 81 84 77 76 74 68 67 67 70 68 68 70 66 65 58 57 59 68 79 76 75 72 71 65 57 54 48 45 45 45
79 80 82 81 77 74 74 80 82 84 85 88 86 81 82 83 91 93 89 85 78 68 63 59 53 56 60 62 63 67 74 76 80 80 63 56 52 51 46 47 48 47 48
83 78 81 75 75 77 80 81 83 89 89 92 84 90 89 83 82 86 83 80 79 75 69 67 70 72 76 78 81 80 82 74 72 64 59 57 54 51 47 47 46 45 46
83 81 80 83 77 80 80 81 84 94 88 92 91 91 89 89 90 83 82 77 78 79 82 78 76 75 76 82 83 85 78 69 63 58 56 55 54 52 51 51 48 47 49
80 80 83 83 83 83 82 83 88 94 87 86 86 90 92 90 92 90 89 85 84 81 77 73 70 72 84 84 86 91 81 69 65 61 59 60 57 53 55 53 53 51 49
75 73 78 82 83 84 86 87 87 87 85 88 88 88 93 92 92 90 88 86 80 80 76 68 75 79 84 80 85 83 74 73 70 68 69 61 56 52 51 52 49 48 51
63 69 71 73 80 83 85 85 88 88 87 89 89 86 85 86 85 88 89 90 88 81 76 71 73 79 80 84 84 85 81 85 80 79 73 65 62 57 54 55 55 54 49
61 62 64 65 69 71 71 77 80 85 84 84 85 85 82 81 84 85 87 90 88 78 73 67 72 81 85 90 90 90 92 93 91 86 79 73 66 63 58 59 55 54 48
56 59 59 60 59 61 67 72 76 78 79 78 78 78 81 78 80 81 80 84 86 82 79 78 92 93 98 95 91 91 94 94 95 85 77 77 74 72 68 60 56 53 46
61 62 61 65 64 63 58 62 66 65 67 70 70 74 73 74 75 77 79 83 82 81 87 89 89 95 98 98 97 96 96 97 91 87 88 90 82 79 77 67 60 53 49
54 57 58 58 60 62 61 59 65 67 68 65 66 70 73 77 78 80 81 79 78 83 86 83 91 97 98 97 91 91 88 96 97 89 95 96 94 87 84 80 71 59 58
48 48 47 48 49 52 61 65 65 68 73 71 72 75 76 79 77 78 80 76 77 80 85 82 87 90 95 99 96 92 91 88 88 93 99 95 96 91 86 81 70 63 64
48 47 46 45 45 45 45 46 49 52 56 65 70 71 72 75 80 82 89 88 91 92 94 92 90 90 94 97 96 96 97 93 90 97 98 97 89 91 87 83 73 70 65
49 49 45 43 43 41 37 39 44 48 52 55 56 56 58 62 64 69 76 88 90 95 96 97 98 94 98 98 90 95 99 89 87 92 94 98 98 92 88 81 73 71 71
49 44 45 48 47 47 46 46 45 48 49 52 54 55 56 60 66 74 82 87 93 98 98 98 96 96 96 87 93 99 96 97 97 97 98 94 95 89 80 74 76 80 83
56 54 54 52 51 49 52 55 56 59 59 54 54 58 60 66 71 77 78 79 82 88 86 96 87 88 85 89 90 90 88 97 98 98 97 95 86 82 83 80 85 85 82
66 64 64 65 63 62 64 64 69 69 68 69 70 70 70 68 67 70 76 77 78 80 83 81 91 97 82 80 87 89 88 97 96 92 90 91 93 84 80 83 84 84 84
68 71 67 64 63 67 69 73 77 80 80 76 78 79 81 84 84 79 77 78 80 80 79 80 80 86 82 87 98 97 96 94 96 96 91 87 87 87 80 82 84 82 81

GFSMA_prec_cthk_075.txt.gz
RH
70 73 63 54 49 44 38 40 40 45 51 50 53 54 51 49 44 36 36 35 34 31 30 27 28 30 27 26 27 29 29 29 29 28 28 29 30 31 34 35 33 32 30
79 72 72 61 50 43 43 42 43 50 51 49 55 57 55 50 46 39 39 38 37 35 34 34 34 36 30 33 37 37 38 37 35 34 34 34 35 37 37 38 38 37 33
82 77 79 63 55 51 50 52 53 52 52 49 57 56 57 54 53 45 41 40 39 38 39 37 38 39 33 39 44 44 45 45 40 40 39 40 41 40 41 42 43 37 33
84 84 83 71 62 60 61 60 65 62 54 50 57 58 60 58 50 47 44 42 41 39 40 37 41 35 38 40 47 49 54 50 50 47 45 46 46 46 47 50 42 37 34
87 90 84 79 73 68 71 69 73 66 59 53 55 58 62 62 56 53 50 44 43 40 39 38 41 38 40 47 53 52 56 58 57 50 50 50 50 55 59 56 46 41 42
86 89 83 80 79 73 76 75 75 68 63 60 61 61 62 65 61 61 56 53 49 43 44 44 44 45 48 56 55 56 62 63 60 56 55 54 60 66 61 53 50 50 46
88 89 84 84 83 86 79 78 81 70 66 69 71 69 69 67 64 63 62 58 54 50 50 47 46 51 56 59 57 62 65 68 65 60 62 66 70 70 67 59 55 49 48
90 89 88 89 88 93 93 90 79 70 72 76 78 81 76 75 69 60 59 59 60 55 48 46 53 60 62 60 60 63 64 67 60 63 73 81 80 76 72 64 57 54 50
94 92 91 91 90 93 94 93 79 74 76 81 83 83 83 79 70 67 62 58 60 62 64 65 63 62 60 61 61 58 57 55 56 62 71 79 80 73 62 56 52 51 47
92 90 87 91 95 92 91 90 79 79 79 78 84 84 82 83 81 78 76 71 67 67 65 65 65 63 61 55 53 57 62 70 75 77 78 81 76 62 58 54 51 48 49
86 87 87 86 88 87 84 80 74 79 79 82 84 85 84 86 87 85 83 87 82 86 78 73 71 70 69 70 73 71 74 79 81 79 78 77 68 57 53 54 52 50 47
82 83 79 79 78 79 78 77 74 80 83 85 90 88 88 88 84 86 85 85 79 77 74 77 79 80 76 73 74 75 82 80 78 78 77 74 64 61 61 62 55 49 48
77 79 83 78 76 77 79 81 80 82 86 88 88 92 92 89 87 88 88 88 91 87 85 84 84 81 77 70 73 81 84 85 84 88 82 75 70 69 70 65 62 58 54
82 82 81 75 72 74 77 79 82 83 84 88 90 96 93 89 88 89 90 93 91 90 88 85 82 78 76 74 72 77 82 87 91 90 87 85 81 79 79 77 74 65 60
74 71 68 69 71 76 84 85 85 84 84 88 91 96 92 89 89 89 90 90 91 90 89 88 89 86 81 75 72 74 82 89 88 92 93 90 89 88 88 82 75 72 70
59 62 64 66 70 69 76 80 86 88 88 88 90 91 90 88 88 89 89 89 89 88 86 86 85 83 81 77 77 86 89 94 95 96 94 96 94 92 89 83 82 81 75
51 52 58 59 61 65 64 67 70 75 78 81 83 83 86 88 89 89 88 85 83 85 82 79 80 82 81 78 80 84 89 93 94 96 97 97 98 96 93 90 88 89 86
60 60 62 59 60 64 64 63 61 67 70 71 73 78 79 81 83 81 80 77 78 78 81 80 82 78 75 79 79 87 92 91 94 92 97 95 97 97 98 91 93 96 95
49 51 54 57 61 63 65 62 60 60 58 60 64 65 64 68 68 70 73 77 80 82 80 83 82 82 82 85 86 83 84 95 96 95 94 96 98 97 90 91 98 98 97
47 47 47 47 47 47 48 51 56 63 64 65 67 71 73 72 69 73 76 78 82 84 86 86 86 87 89 89 92 92 89 91 97 98 93 92 95 98 95 97 97 98 98
50 52 52 51 50 47 44 44 44 45 48 50 50 51 55 64 71 72 73 73 77 77 79 77 77 83 89 90 96 96 95 99 97 97 90 89 98 99 97 95 98 98 95
53 56 54 54 53 50 45 44 47 46 45 44 43 44 47 50 52 57 61 64 65 65 68 79 81 85 80 83 94 98 92 91 91 89 87 93 98 95 94 95 98 98 91
60 58 58 57 53 50 51 55 58 60 59 56 55 55 55 52 51 53 55 60 65 72 76 80 81 81 75 71 75 89 98 83 98 92 88 92 81 81 86 97 97 95 86
59 62 64 65 63 57 60 61 63 65 63 62 65 65 65 65 67 70 72 74 75 76 74 73 75 75 78 76 73 82 89 86 87 96 98 92 97 98 97 97 96 92 91
64 59 67 71 68 65 70 69 73 73 73 76 74 75 77 78 81 84 86 87 88 86 85 86 85 85 79 80 81 90 81 86 90 87 87 92 98 97 97 97 97 94 91
77 76 76 77 70 75 74 74 76 77 78 79 81 83 85 88 91 93 94 94 93 94 91 89 93 89 87 84 77 96 98 90 96 95 97 97 98 97 96 92 89 90 91

GFSMA_prec_cthk_078.txt.gz
RH
84 65 53 53 58 61 42 41 47 48 46 46 48 44 44 44 39 34 34 33 32 30 28 28 27 25 26 26 25 25 27 29 29 30 30 31 31 32 34 36 34 34 35
80 60 53 51 49 51 53 51 55 52 53 49 48 50 49 49 43 38 35 35 32 33 32 30 30 29 30 34 30 34 36 38 37 38 35 35 36 36 38 38 38 38 41
75 59 60 58 54 56 50 49 50 55 54 51 52 52 52 52 47 43 41 39 36 38 38 36 36 36 36 38 40 41 43 46 43 42 38 38 40 40 39 39 41 47 43
74 66 66 66 60 52 49 43 49 53 56 56 55 55 52 52 51 46 47 44 41 42 42 40 40 40 39 42 40 46 50 51 49 50 51 44 44 44 44 46 53 52 49
80 75 73 73 66 54 54 53 56 55 57 59 59 59 52 53 52 50 48 46 44 44 45 41 41 41 41 44 43 48 50 53 57 60 59 53 49 51 51 55 60 54 48
87 83 83 73 67 64 60 58 55 55 56 58 66 60 56 61 60 57 57 54 48 46 46 45 41 41 43 46 48 52 56 60 59 63 62 58 56 54 57 60 61 61 55
89 88 87 78 76 72 65 65 68 68 63 61 68 64 68 70 66 63 64 62 58 53 49 47 43 44 48 55 53 57 64 63 69 69 65 65 63 65 76 74 70 63 54
92 92 88 84 80 80 75 75 71 76 69 67 65 65 70 71 74 71 69 67 61 58 57 53 51 52 57 58 59 60 60 59 64 66 68 68 63 69 76 78 76 63 57
95 92 90 87 82 79 78 77 71 72 73 72 70 70 75 76 78 79 75 62 60 60 57 56 50 52 55 58 58 58 59 62 65 65 67 71 76 80 84 84 76 63 55
96 94 92 83 85 85 81 80 84 83 76 70 74 77 78 78 87 83 71 66 65 58 58 59 60 61 62 62 63 63 65 61 63 71 82 84 85 84 82 82 74 60 57
97 95 91 86 86 89 91 89 93 87 82 74 79 81 80 84 87 85 81 77 75 71 67 67 68 70 69 66 64 60 70 77 80 83 86 84 81 80 80 81 73 62 58
93 92 91 90 91 91 92 93 94 94 89 84 86 82 84 85 85 86 87 86 82 84 80 79 78 73 73 78 80 78 73 75 79 85 87 87 81 79 81 78 71 68 65
87 86 89 87 88 93 96 94 93 90 87 83 85 87 92 90 90 90 88 86 85 85 84 81 80 80 81 83 78 78 75 73 72 74 79 84 86 88 88 81 80 75 75
78 83 85 89 89 91 91 91 90 87 83 81 85 89 90 90 90 91 90 91 89 88 86 84 87 85 85 85 85 83 80 76 74 75 78 82 86 90 90 89 90 85 85
78 82 83 88 87 80 80 77 82 85 81 80 85 90 91 89 90 93 93 91 89 89 87 84 84 84 84 86 86 86 81 79 77 83 87 89 91 94 96 97 95 93 92
66 72 77 74 74 72 73 75 79 83 83 84 87 89 89 87 90 94 94 93 89 87 83 82 82 82 84 83 83 85 84 85 81 84 84 91 94 94 96 97 96 97 97
54 55 59 63 63 67 66 66 70 72 74 79 87 88 88 88 88 89 90 90 88 87 86 79 81 78 77 77 78 81 83 81 79 79 82 88 92 94 93 95 99 98 98
62 62 61 60 61 60 63 68 70 68 67 72 77 81 83 85 84 84 85 84 85 82 83 80 74 73 73 75 77 81 78 80 84 86 86 82 90 96 94 97 98 98 98
57 59 60 62 62 64 67 66 66 67 68 67 68 69 68 73 72 72 74 75 76 77 77 75 72 74 73 75 78 81 82 86 89 89 93 93 92 95 97 98 98 95 92
52 54 55 56 57 57 59 61 62 61 61 65 70 68 69 72 72 74 73 71 70 71 73 76 77 78 78 79 74 67 69 76 84 91 95 96 97 96 98 98 96 91 95
48 51 54 57 59 59 58 58 58 59 61 61 62 61 60 59 58 60 68 72 76 79 81 80 77 71 65 63 63 70 76 82 76 78 87 89 91 90 89 91 91 94 99
52 53 53 56 57 56 55 56 58 57 56 54 50 50 50 51 49 50 51 53 57 58 61 63 60 60 58 65 71 73 75 73 73 73 78 80 87 92 88 99 96 98 92
63 59 60 61 61 61 60 60 62 64 62 59 58 59 58 56 59 60 61 65 68 71 69 69 67 68 71 75 78 80 82 82 80 90 77 75 84 89 78 79 87 92 94
69 69 68 66 65 66 70 73 71 70 67 66 63 63 64 64 65 69 73 75 77 78 79 82 88 86 85 86 90 88 95 92 94 98 86 97 90 86 88 91 92 93 96
78 79 80 81 80 75 78 77 80 80 78 79 79 79 78 77 77 81 85 86 86 87 87 88 89 90 93 96 95 95 97 97 95 97 95 96 89 93 95 91 90 94 95
82 84 84 84 84 87 85 85 87 85 80 79 79 82 83 79 80 82 85 86 89 91 91 89 89 92 94 95 96 97 96 98 99 97 96 97 95 95 96 97 96 95 96

GFSMA_prec_cthk_081.txt.gz
RH
94 97 84 65 49 57 60 61 56 56 47 50 41 45 42 40 35 32 28 31 31 32 31 28 25 24 25 26 26 24 23 24 24 25 26 28 29 30 31 33 34 34 33
93 95 83 70 58 54 53 52 56 49 44 47 43 50 47 47 40 35 34 33 33 32 31 31 29 28 28 29 29 30 33 33 32 32 34 35 34 36 37 37 37 35 38
97 90 78 63 55 64 61 57 49 53 55 48 46 51 49 48 44 38 38 36 36 36 35 34 34 33 34 35 34 37 42 37 39 42 42 43 39 37 37 37 38 40 45
96 81 69 55 48 51 58 63 65 60 64 58 55 52 52 53 46 44 44 42 40 41 39 38 40 40 40 41 40 41 46 46 46 47 50 49 50 46 42 43 44 45 52
95 76 68 55 54 55 55 58 64 62 65 59 60 57 55 56 50 47 48 48 45 45 45 44 45 44 43 44 45 44 48 47 49 54 56 57 62 58 54 49 47 53 57
91 80 63 58 62 66 59 59 65 61 58 58 60 61 62 59 59 53 49 50 49 50 48 47 47 47 44 46 48 49 52 46 52 56 62 62 62 62 57 56 56 64 66
90 72 67 66 68 68 63 55 64 63 60 62 66 68 68 67 65 59 57 57 55 55 52 48 48 48 47 46 51 53 56 52 55 61 63 63 64 63 62 62 63 68 72
87 81 75 75 70 68 64 60 63 62 67 67 69 71 69 74 71 65 66 69 67 65 60 55 52 49 51 51 53 56 61 62 61 63 63 64 68 69 70 70 75 78 77
91 90 84 79 73 73 75 69 66 64 63 64 67 70 71 70 71 72 68 69 73 67 66 65 59 57 53 55 60 63 62 60 61 62 65 68 71 73 76 84 85 85 85
94 93 94 88 82 80 75 71 70 67 71 69 70 70 69 65 71 74 74 80 79 72 66 66 64 60 57 57 58 58 58 59 61 67 69 69 71 77 84 85 84 86 85
97 96 96 91 87 80 81 80 79 79 77 76 73 72 75 74 75 74 80 86 81 69 63 63 61 64 64 65 65 66 64 67 66 65 67 73 80 82 83 82 80 83 82
98 99 98 97 92 87 86 88 88 84 81 80 83 75 71 74 76 79 82 86 86 82 82 77 70 65 66 66 67 69 73 73 75 77 76 76 76 78 79 82 82 81 85
98 98 98 96 95 90 90 89 92 89 90 91 86 83 80 82 83 84 84 87 88 90 88 84 81 77 73 81 75 78 82 84 82 81 79 78 75 77 79 82 86 85 86
94 97 95 96 95 87 88 92 94 94 93 95 93 86 86 87 87 90 89 90 91 90 88 83 84 85 86 87 85 87 87 85 85 86 84 78 75 78 80 83 88 91 90
82 86 89 90 87 84 82 88 89 89 93 93 92 90 90 91 92 93 92 93 89 92 89 84 85 86 87 89 89 88 86 84 84 86 85 85 83 79 79 79 86 90 92
82 85 90 91 91 89 90 82 84 92 94 93 93 94 91 89 92 91 93 92 88 88 89 88 85 85 88 88 88 89 88 87 86 83 82 82 83 79 79 78 82 87 90
63 67 77 85 85 83 83 81 83 87 86 92 91 91 85 83 88 89 93 93 90 90 90 84 88 88 88 88 89 89 87 82 80 80 81 83 80 83 87 87 88 85 92
51 53 56 61 65 66 69 71 73 74 75 75 75 74 76 80 83 87 90 89 91 92 90 86 87 86 87 86 86 83 80 79 80 80 86 86 87 89 92 93 94 91 93
59 62 65 66 64 66 66 68 69 72 73 71 70 70 71 75 76 80 83 86 86 85 86 85 82 82 80 81 77 75 73 76 78 81 82 73 76 81 86 92 95 96 96
55 54 54 55 55 56 58 60 63 65 66 65 65 64 67 70 71 73 75 76 75 76 76 79 76 71 70 68 70 70 72 75 71 71 63 62 71 81 83 83 87 93 98
52 56 57 57 58 59 59 60 62 62 60 59 57 59 64 66 70 72 76 74 76 76 78 79 79 77 76 74 71 68 64 60 55 54 55 62 74 74 74 74 84 87 87
61 58 56 55 56 57 61 66 72 70 67 63 60 62 61 60 56 58 61 62 66 65 61 61 60 60 56 56 57 59 56 60 59 62 69 72 85 76 78 81 93 96 84
73 72 72 71 70 69 69 68 68 68 68 65 65 66 63 61 60 61 62 64 66 68 71 71 67 66 68 70 71 73 75 80 86 86 84 85 91 88 89 90 98 95 92
81 82 82 83 85 82 85 83 82 83 80 75 72 70 69 68 69 67 67 69 70 74 74 79 79 73 75 77 83 86 90 92 89 90 86 92 98 94 98 98 98 95 97
86 86 88 89 89 90 86 86 88 88 85 83 83 87 87 82 84 84 85 84 88 87 86 86 85 83 83 82 87 91 92 94 98 95 92 99 95 93 98 98 97 97 96
87 88 90 90 90 91 90 90 91 93 96 96 96 93 90 91 88 88 92 93 94 91 92 92 92 93 90 87 89 91 95 95 97 98 99 98 98 97 97 97 96 97 97